IW2NBW-3 Weather Reports


Display with metric or nautical units.
time (UTC)temp
F
wind
direction
speed
MPH
gust
MPH
rain 1hr
in
rain 24hr
in
rain mn
in
humidity
%
barometer
mb
20260507024103 53 286 0.0 4.0 0.01 0.58 0.13 91 1012.8
20260507024003 53 286 0.0 4.0 0.01 0.58 0.13 91 1012.8
20260507023904 53 285 0.0 6.0 0.01 0.58 0.13 91 1012.8
20260507023804 53 283 1.0 6.0 0.01 0.58 0.13 91 1012.8
20260507023704 53 283 1.0 6.0 0.01 0.58 0.13 91 1012.8
20260507023604 53 283 1.0 6.0 0.01 0.58 0.13 91 1012.8
20260507023504 53 283 1.0 6.0 0.01 0.58 0.13 91 1012.8
20260507023404 53 283 1.0 6.0 0.01 0.58 0.13 91 1012.8
20260507023304 53 282 0.0 6.0 0.01 0.58 0.13 91 1012.8
20260507023204 53 283 0.0 6.0 0.01 0.58 0.13 91 1012.8
20260507023104 53 284 1.0 6.0 0.01 0.58 0.13 91 1012.8
20260507023004 53 284 1.0 6.0 0.01 0.59 0.13 91 1012.8
20260507022908 53 284 1.0 6.0 0.01 0.59 0.13 91 1012.8
20260507022804 53 286 0.0 4.0 0.01 0.59 0.13 91 1012.8
20260507022704 53 286 0.0 4.0 0.01 0.59 0.13 91 1012.8
20260507022604 53 285 1.0 5.0 0.01 0.59 0.13 91 1012.8
20260507022504 53 286 1.0 5.0 0.01 0.59 0.13 91 1012.7
20260507022404 53 287 1.0 5.0 0.01 0.59 0.13 91 1012.7
20260507022306 53 287 1.0 5.0 0.01 0.59 0.13 91 1012.7
20260507022204 53 287 1.0 5.0 0.01 0.59 0.13 91 1012.7
20260507022104 53 286 0.0 5.0 0.01 0.59 0.13 91 1012.8
20260507022004 53 286 0.0 5.0 0.01 0.59 0.13 91 1012.8
20260507021904 53 286 0.0 5.0 0.01 0.59 0.13 91 1012.8
20260507021804 53 286 0.0 5.0 0.01 0.59 0.13 91 1012.7
20260507021704 53 286 0.0 5.0 0.01 0.59 0.13 91 1012.7
20260507021604 53 292 0.0 3.0 0.01 0.59 0.13 91 1012.7
20260507021504 53 295 0.0 3.0 0.01 0.60 0.13 91 1012.7
20260507021404 53 295 0.0 3.0 0.01 0.60 0.13 91 1012.7
20260507021304 53 296 0.0 3.0 0.01 0.60 0.13 91 1012.7
20260507021203 53 295 0.0 3.0 0.01 0.60 0.13 91 1012.7
20260507021103 53 295 0.0 3.0 0.01 0.60 0.13 91 1012.7
20260507021004 53 295 0.0 3.0 0.01 0.61 0.13 91 1012.6
20260507020903 53 295 0.0 3.0 0.01 0.61 0.13 92 1012.6
20260507020803 53 295 0.0 3.0 0.01 0.61 0.13 92 1012.7
20260507020703 53 294 0.0 4.0 0.01 0.61 0.13 92 1012.7
20260507020603 53 294 0.0 4.0 0.01 0.61 0.13 92 1012.7
20260507020503 53 294 0.0 4.0 0.00 0.60 0.12 92 1012.7
20260507020403 53 294 0.0 4.0 0.00 0.60 0.12 92 1012.7
20260507020303 53 292 0.0 4.0 0.00 0.60 0.12 92 1012.7
20260507020203 53 292 0.0 4.0 0.00 0.60 0.12 92 1012.7
20260507020103 53 292 0.0 4.0 0.00 0.60 0.12 92 1012.7
20260507020003 53 291 0.0 4.0 0.00 0.60 0.12 92 1012.7
20260507015903 53 290 0.0 4.0 0.00 0.60 0.12 92 1012.7
20260507015803 53 290 0.0 4.0 0.00 0.60 0.12 92 1012.6
20260507015703 53 290 0.0 2.0 0.00 0.60 0.12 92 1012.6
20260507015603 53 290 0.0 2.0 0.00 0.60 0.12 92 1012.6
20260507015503 53 283 0.0 2.0 0.00 0.60 0.12 93 1012.6
20260507015403 53 283 0.0 2.0 0.00 0.60 0.12 93 1012.6
20260507015306 53 284 0.0 2.0 0.00 0.60 0.12 93 1012.7
20260507015203 53 284 0.0 2.0 0.00 0.60 0.12 93 1012.7
20260507015104 53 284 0.0 2.0 0.00 0.60 0.12 93 1012.7
20260507015004 53 282 0.0 1.0 0.00 0.60 0.12 93 1012.7
20260507014904 53 282 0.0 1.0 0.00 0.60 0.12 93 1012.7
20260507014803 53 284 0.0 4.0 0.00 0.60 0.12 93 1012.6
20260507014703 53 284 0.0 4.0 0.00 0.60 0.12 93 1012.6
20260507014603 53 284 0.0 4.0 0.00 0.60 0.12 93 1012.6
20260507014503 53 285 0.0 4.0 0.00 0.60 0.12 93 1012.6
20260507014403 53 285 0.0 4.0 0.00 0.60 0.12 93 1012.6
20260507014303 53 285 0.0 4.0 0.00 0.60 0.12 93 1012.6
20260507014203 53 285 0.0 4.0 0.00 0.60 0.12 93 1012.5
20260507014103 53 285 0.0 4.0 0.00 0.60 0.12 93 1012.5
20260507014003 52 285 0.0 4.0 0.00 0.60 0.12 93 1012.5
20260507013903 52 285 0.0 4.0 0.00 0.60 0.12 93 1012.5
20260507013804 53 284 0.0 2.0 0.00 0.60 0.12 93 1012.5
20260507013704 52 0 0.0 0.0 0.00 0.60 0.12 93 1012.6
20260507013604 52 0 0.0 0.0 0.00 0.60 0.12 93 1012.6
20260507013504 52 0 0.0 0.0 0.00 0.60 0.12 93 1012.5
20260507013403 52 0 0.0 0.0 0.00 0.60 0.12 93 1012.6
20260507013304 52 0 0.0 0.0 0.00 0.60 0.12 93 1012.6
20260507013204 52 0 0.0 0.0 0.00 0.60 0.12 93 1012.6
20260507013104 52 0 0.0 0.0 0.00 0.60 0.12 93 1012.6
20260507013004 52 0 0.0 0.0 0.00 0.60 0.12 93 1012.6
20260507012904 52 0 0.0 0.0 0.00 0.60 0.12 93 1012.5
20260507012804 52 0 0.0 0.0 0.00 0.60 0.12 93 1012.5
20260507012704 53 0 0.0 0.0 0.00 0.60 0.12 93 1012.6
20260507012604 52 0 0.0 0.0 0.00 0.60 0.12 93 1012.5
20260507012504 53 0 0.0 0.0 0.00 0.60 0.12 93 1012.5
20260507012404 53 0 0.0 0.0 0.00 0.60 0.12 93 1012.6
20260507012306 53 0 0.0 0.0 0.00 0.60 0.12 93 1012.6
20260507012204 53 0 0.0 0.0 0.00 0.60 0.12 93 1012.6
20260507012104 53 0 0.0 0.0 0.00 0.60 0.12 93 1012.7
20260507012004 53 0 0.0 0.0 0.00 0.60 0.12 93 1012.7
20260507011904 53 0 0.0 0.0 0.01 0.60 0.12 93 1012.6
20260507011804 53 0 0.0 0.0 0.01 0.60 0.12 93 1012.6
20260507011704 53 0 0.0 0.0 0.01 0.60 0.12 93 1012.7
20260507011604 53 0 0.0 0.0 0.01 0.60 0.12 93 1012.6
20260507011504 53 0 0.0 0.0 0.01 0.60 0.12 93 1012.6
20260507011403 53 0 0.0 0.0 0.01 0.60 0.12 93 1012.6
20260507011304 53 0 0.0 0.0 0.01 0.60 0.12 93 1012.6
20260507011203 53 0 0.0 0.0 0.01 0.60 0.12 93 1012.6
20260507011103 53 0 0.0 0.0 0.01 0.60 0.12 93 1012.6
20260507011004 53 0 0.0 0.0 0.01 0.60 0.12 93 1012.6
20260507010903 53 0 0.0 0.0 0.01 0.60 0.12 93 1012.6
20260507010803 53 0 0.0 0.0 0.01 0.60 0.12 93 1012.6
20260507010703 53 0 0.0 0.0 0.01 0.60 0.12 93 1012.6
20260507010604 53 0 0.0 0.0 0.01 0.60 0.12 93 1012.7
20260507010503 53 0 0.0 0.0 0.01 0.60 0.12 93 1012.7
20260507010403 53 0 0.0 0.0 0.01 0.60 0.12 93 1012.7
20260507010303 53 0 0.0 0.0 0.01 0.60 0.12 93 1012.7
20260507010203 53 0 0.0 0.0 0.01 0.60 0.12 93 1012.7
20260507010104 53 0 0.0 0.0 0.01 0.60 0.12 93 1012.7
20260507005903 53 0 0.0 0.0 0.01 0.60 0.12 93 1012.7
20260507005803 53 0 0.0 0.0 0.01 0.60 0.12 93 1012.7
20260507005703 53 0 0.0 0.0 0.01 0.60 0.12 93 1012.7
20260507005603 53 0 0.0 0.0 0.01 0.60 0.12 93 1012.7
20260507005503 53 0 0.0 0.0 0.01 0.60 0.12 93 1012.7
20260507005403 53 0 0.0 0.0 0.02 0.60 0.12 93 1012.7
20260507005305 53 0 0.0 0.0 0.02 0.60 0.12 92 1012.7
20260507005203 53 0 0.0 0.0 0.02 0.60 0.12 92 1012.7
20260507005103 53 0 0.0 0.0 0.02 0.60 0.12 92 1012.7
20260507005004 52 0 0.0 0.0 0.02 0.60 0.12 92 1012.6
20260507004903 52 0 0.0 0.0 0.07 0.60 0.12 92 1012.6
20260507004803 52 0 0.0 0.0 0.07 0.60 0.12 92 1012.6
20260507004703 52 0 0.0 0.0 0.07 0.60 0.12 92 1012.6
20260507004603 52 0 0.0 0.0 0.07 0.60 0.12 92 1012.6
20260507004503 53 0 0.0 0.0 0.07 0.60 0.12 92 1012.7
20260507004403 53 0 0.0 0.0 0.12 0.60 0.12 92 1012.7
20260507004303 53 0 0.0 0.0 0.12 0.60 0.12 92 1012.7
20260507004203 53 0 0.0 0.0 0.12 0.60 0.12 92 1012.7
20260507004103 53 0 0.0 0.0 0.12 0.60 0.12 92 1012.6
20260507004006 53 0 0.0 0.0 0.12 0.60 0.12 92 1012.6
20260507003903 53 0 0.0 0.0 0.12 0.60 0.12 92 1012.6
20260507003803 53 0 0.0 0.0 0.12 0.60 0.12 92 1012.6
20260507003503 53 0 0.0 0.0 0.12 0.60 0.12 92 1012.6
20260507003403 53 0 0.0 0.0 0.12 0.60 0.12 92 1012.6
20260507003303 53 0 0.0 0.0 0.12 0.60 0.12 91 1012.7
20260507003203 53 0 0.0 0.0 0.12 0.60 0.12 91 1012.7
20260507003103 53 0 0.0 0.0 0.12 0.60 0.12 91 1012.7
20260507003004 53 0 0.0 0.0 0.12 0.60 0.12 91 1012.6
20260507002903 53 0 0.0 0.0 0.12 0.60 0.12 91 1012.7
20260507002803 53 0 0.0 0.0 0.12 0.60 0.12 91 1012.7
20260507002703 53 0 0.0 0.0 0.12 0.60 0.12 91 1012.7
20260507002603 53 0 0.0 0.0 0.12 0.60 0.12 91 1012.7
20260507002503 53 0 0.0 0.0 0.12 0.60 0.12 91 1012.7
20260507002403 53 0 0.0 0.0 0.12 0.60 0.12 91 1012.7
20260507002306 53 0 0.0 0.0 0.12 0.60 0.12 91 1012.7
20260507002203 54 0 0.0 0.0 0.11 0.59 0.11 91 1012.7
20260507002103 54 0 0.0 0.0 0.11 0.59 0.11 91 1012.7
20260507002003 54 0 0.0 0.0 0.11 0.59 0.11 91 1012.7
20260507001903 54 0 0.0 0.0 0.11 0.59 0.11 91 1012.7
20260507001803 54 309 0.0 1.0 0.11 0.59 0.11 91 1012.7
20260507001703 54 308 0.0 1.0 0.11 0.59 0.11 90 1012.7
20260507001603 54 308 0.0 1.0 0.11 0.59 0.11 90 1012.7
20260507001503 54 308 0.0 1.0 0.11 0.59 0.11 90 1012.7
20260507001403 54 304 0.0 2.0 0.11 0.59 0.11 90 1012.7
20260507001303 54 303 0.0 2.0 0.11 0.59 0.11 90 1012.7
20260507001203 54 303 0.0 2.0 0.11 0.59 0.11 90 1012.7
20260507001103 54 303 0.0 2.0 0.11 0.59 0.11 90 1012.8
20260507001003 54 303 0.0 2.0 0.11 0.59 0.11 90 1012.8
20260507000903 54 303 0.0 2.0 0.11 0.59 0.11 90 1012.7
20260507000803 54 302 0.0 2.0 0.11 0.59 0.11 90 1012.7
20260507000703 54 298 0.0 2.0 0.11 0.59 0.11 90 1012.7
20260507000604 54 291 0.0 3.0 0.11 0.59 0.11 89 1012.7
20260507000505 54 291 0.0 3.0 0.11 0.59 0.11 89 1012.7
20260507000405 54 290 0.0 3.0 0.11 0.59 0.11 89 1012.6
20260507000306 54 289 0.0 3.0 0.11 0.59 0.11 89 1012.6
20260507000205 54 283 0.0 3.0 0.11 0.59 0.11 89 1012.6
20260507000104 54 283 0.0 3.0 0.11 0.59 0.11 89 1012.5
20260507000004 54 283 0.0 3.0 0.11 0.59 0.11 89 1012.5
20260506235904 54 283 0.0 3.0 0.11 0.59 0.11 89 1012.5
20260506235804 54 283 0.0 3.0 0.11 0.59 0.11 89 1012.5
20260506235704 54 283 0.0 3.0 0.11 0.59 0.11 89 1012.5
20260506235604 54 286 0.0 1.0 0.10 0.58 0.10 89 1012.6
20260506235504 54 278 0.0 4.0 0.10 0.58 0.10 89 1012.6
20260506235404 55 278 0.0 4.0 0.09 0.57 0.09 89 1012.6
20260506235306 55 277 0.0 4.0 0.09 0.57 0.09 88 1012.7
20260506235204 55 277 0.0 4.0 0.08 0.56 0.08 88 1012.7
20260506235104 55 277 0.0 4.0 0.07 0.55 0.07 88 1012.7
20260506235004 55 277 0.0 4.0 0.05 0.53 0.05 88 1012.7
20260506234904 55 277 0.0 4.0 0.04 0.52 0.04 88 1012.7
20260506234804 55 277 0.0 4.0 0.02 0.50 0.02 88 1012.7
20260506234704 55 277 0.0 4.0 0.02 0.50 0.02 88 1012.7
20260506234603 55 277 0.0 4.0 0.00 0.48 0.00 88 1012.7
20260506234504 55 280 0.0 2.0 0.00 0.48 0.00 88 1012.7
20260506234404 55 287 0.0 2.0 0.00 0.48 0.00 88 1012.7
20260506234303 55 287 0.0 2.0 0.00 0.48 0.00 88 1012.6
20260506234203 55 285 0.0 2.0 0.00 0.48 0.00 88 1012.6
20260506234103 55 285 0.0 2.0 0.00 0.48 0.00 88 1012.6
20260506234004 55 285 0.0 3.0 0.00 0.48 0.00 88 1012.6
20260506233903 55 285 1.0 6.0 0.00 0.48 0.00 88 1012.6
20260506233803 55 285 1.0 6.0 0.00 0.48 0.00 88 1012.5
20260506233703 55 285 1.0 6.0 0.00 0.48 0.00 88 1012.5
20260506233603 55 285 1.0 6.0 0.00 0.48 0.00 88 1012.5
20260506233503 55 285 1.0 6.0 0.00 0.48 0.00 88 1012.4
20260506233403 55 284 1.0 6.0 0.00 0.48 0.00 88 1012.4
20260506233303 55 284 1.0 6.0 0.00 0.48 0.00 88 1012.4
20260506233203 55 283 1.0 6.0 0.00 0.48 0.00 88 1012.4
20260506233103 55 283 1.0 6.0 0.00 0.48 0.00 88 1012.5
20260506233003 55 283 1.0 6.0 0.00 0.48 0.00 88 1012.5
20260506232903 55 283 1.0 5.0 0.00 0.48 0.00 88 1012.5
20260506232803 55 282 1.0 6.0 0.00 0.48 0.00 89 1012.5
20260506232703 55 282 1.0 7.0 0.00 0.48 0.00 89 1012.5
20260506232603 55 282 1.0 7.0 0.00 0.48 0.00 89 1012.5
20260506232503 55 282 1.0 7.0 0.00 0.48 0.00 89 1012.5
20260506232403 55 282 1.0 7.0 0.00 0.48 0.00 89 1012.5
20260506232306 55 282 1.0 7.0 0.00 0.48 0.00 89 1012.5
20260506232203 55 282 1.0 7.0 0.00 0.48 0.00 89 1012.5
20260506232103 55 282 1.0 7.0 0.00 0.48 0.00 89 1012.5
20260506232003 55 282 1.0 7.0 0.00 0.48 0.00 89 1012.5
20260506231903 55 280 0.0 7.0 0.00 0.48 0.00 89 1012.5
20260506231803 55 280 0.0 7.0 0.00 0.48 0.00 89 1012.5
20260506231703 54 0 0.0 0.0 0.00 0.48 0.00 89 1012.5
20260506231603 55 0 0.0 0.0 0.00 0.48 0.00 89 1012.5
20260506231503 55 0 0.0 0.0 0.00 0.48 0.00 89 1012.5
20260506231403 55 0 0.0 0.0 0.00 0.48 0.00 89 1012.5
20260506231303 55 0 0.0 0.0 0.00 0.48 0.00 89 1012.5
20260506231204 54 0 0.0 0.0 0.00 0.48 0.00 89 1012.5
20260506231104 54 0 0.0 0.0 0.00 0.48 0.00 89 1012.5
20260506231004 54 0 0.0 0.0 0.00 0.48 0.00 89 1012.4
20260506230904 55 0 0.0 0.0 0.00 0.48 0.00 89 1012.4
20260506230804 54 0 0.0 0.0 0.00 0.48 0.00 89 1012.4
20260506230704 54 0 0.0 0.0 0.00 0.48 0.00 89 1012.4
20260506230604 54 0 0.0 0.0 0.00 0.48 0.00 89 1012.4
20260506230504 54 0 0.0 0.0 0.00 0.48 0.00 89 1012.4
20260506230404 54 0 0.0 0.0 0.00 0.48 0.00 89 1012.4
20260506230304 54 284 0.0 1.0 0.00 0.48 0.00 89 1012.4
20260506230204 54 284 0.0 1.0 0.00 0.48 0.00 89 1012.4
20260506230104 54 284 0.0 2.0 0.00 0.48 0.00 89 1012.4
20260506230004 54 284 0.0 2.0 0.00 0.48 0.00 89 1012.3
20260506225904 54 284 0.0 3.0 0.00 0.48 0.00 89 1012.3
20260506225804 54 284 0.0 3.0 0.00 0.48 0.00 89 1012.3
20260506225704 54 287 1.0 5.0 0.00 0.48 0.00 89 1012.3
20260506225604 54 287 1.0 5.0 0.00 0.48 0.00 89 1012.3
20260506225504 54 286 1.0 5.0 0.00 0.48 0.00 89 1012.3
20260506225404 54 286 1.0 5.0 0.00 0.48 0.00 89 1012.2
20260506225305 54 286 1.0 5.0 0.00 0.48 0.00 89 1012.2
20260506225204 54 286 1.0 5.0 0.00 0.48 0.00 89 1012.2
20260506225103 54 286 1.0 5.0 0.00 0.48 0.00 89 1012.2
20260506225004 54 286 1.0 5.0 0.00 0.48 0.00 89 1012.2
20260506224903 54 286 1.0 5.0 0.00 0.48 0.00 89 1012.2
20260506224803 54 286 1.0 5.0 0.00 0.48 0.00 89 1012.2
20260506224703 54 285 1.0 3.0 0.00 0.48 0.00 89 1012.1
20260506224603 54 284 1.0 2.0 0.00 0.48 0.00 89 1012.2
20260506224503 54 285 1.0 4.0 0.00 0.48 0.00 89 1012.2
20260506224403 54 285 1.0 4.0 0.00 0.48 0.00 89 1012.1
20260506224303 54 286 1.0 4.0 0.00 0.48 0.00 89 1012.1
20260506224203 54 286 1.0 4.0 0.00 0.48 0.00 90 1012.2
20260506224103 54 287 1.0 4.0 0.00 0.48 0.00 90 1012.1
20260506224004 54 288 1.0 4.0 0.00 0.48 0.00 90 1012.1
20260506223903 54 288 1.0 4.0 0.00 0.48 0.00 90 1012.2
20260506223803 54 288 1.0 4.0 0.00 0.48 0.00 90 1012.0
20260506223703 54 288 1.0 4.0 0.00 0.48 0.00 90 1012.0
20260506223603 54 288 1.0 4.0 0.00 0.48 0.00 90 1012.0
20260506223503 54 288 0.0 3.0 0.00 0.48 0.00 90 1012.0
20260506223403 54 288 0.0 3.0 0.00 0.48 0.00 90 1012.0
20260506223303 54 288 0.0 3.0 0.00 0.48 0.00 90 1012.0
20260506223203 54 287 0.0 3.0 0.00 0.48 0.00 90 1012.0
20260506223103 54 287 0.0 2.0 0.00 0.48 0.00 90 1012.1
20260506223003 54 287 0.0 2.0 0.00 0.48 0.00 90 1012.1
20260506222903 54 0 0.0 0.0 0.00 0.48 0.00 90 1012.0
20260506222803 54 0 0.0 0.0 0.00 0.48 0.00 90 1012.1
20260506222703 54 0 0.0 0.0 0.00 0.48 0.00 90 1012.1
20260506222603 54 0 0.0 0.0 0.00 0.48 0.00 90 1012.1
20260506222503 54 0 0.0 0.0 0.00 0.48 0.00 90 1012.1
20260506222403 54 0 0.0 0.0 0.00 0.48 0.00 90 1012.1
20260506222305 54 0 0.0 0.0 0.00 0.48 0.00 90 1012.1
20260506222203 54 287 0.0 2.0 0.00 0.48 0.00 90 1012.1
20260506222103 54 287 0.0 2.0 0.00 0.48 0.00 90 1012.1
20260506222003 54 287 0.0 2.0 0.00 0.48 0.00 90 1012.2
20260506221903 54 287 0.0 2.0 0.00 0.48 0.00 90 1012.2
20260506221803 54 287 0.0 2.0 0.00 0.48 0.00 90 1012.1
20260506221703 54 287 0.0 2.0 0.00 0.48 0.00 90 1012.1
20260506221603 54 287 0.0 2.0 0.00 0.48 0.00 90 1012.1
20260506221504 54 287 0.0 2.0 0.00 0.48 0.00 90 1012.1
20260506221404 54 287 0.0 2.0 0.00 0.48 0.00 90 1012.1
20260506221304 54 287 0.0 2.0 0.00 0.48 0.00 90 1012.2
20260506221204 54 287 0.0 2.0 0.00 0.48 0.00 90 1012.2
20260506221104 54 287 0.0 1.0 0.00 0.48 0.00 90 1012.1
20260506221004 54 287 0.0 1.0 0.00 0.48 0.00 90 1012.1
20260506220904 54 287 0.0 1.0 0.00 0.48 0.00 90 1012.1
20260506220804 54 287 0.0 1.0 0.00 0.48 0.00 90 1012.1
20260506220704 54 287 0.0 1.0 0.00 0.48 0.00 90 1012.1
20260506220604 54 287 0.0 1.0 0.00 0.48 0.00 90 1012.1
20260506220504 54 287 0.0 1.0 0.00 0.48 0.00 90 1012.1
20260506220404 54 287 0.0 1.0 0.00 0.48 0.00 90 1012.1
20260506220304 54 287 0.0 1.0 0.00 0.48 0.00 90 1012.1
20260506220204 54 287 0.0 2.0 0.00 0.48 0.00 90 1012.1
20260506220103 54 287 0.0 2.0 0.00 0.48 0.00 90 1012.1
20260506220035 54 287 0.0 2.0 0.00 0.48 0.00 90 1012.1
20260506215903 54 287 0.0 2.0 0.00 0.48 0.48 90 1012.1
20260506215803 54 287 0.0 2.0 0.00 0.48 0.48 90 1012.1
20260506215703 54 287 0.0 2.0 0.00 0.48 0.48 90 1012.1
20260506215603 54 287 0.0 2.0 0.00 0.48 0.48 90 1012.1
20260506215503 54 287 0.0 2.0 0.00 0.48 0.48 90 1012.0
20260506215403 54 287 0.0 2.0 0.00 0.48 0.48 90 1012.0
20260506215306 54 287 0.0 2.0 0.00 0.48 0.48 90 1012.1
20260506215203 54 287 0.0 1.0 0.00 0.48 0.48 90 1012.0
20260506215103 54 0 0.0 0.0 0.00 0.48 0.48 90 1012.0
20260506215004 54 0 0.0 0.0 0.00 0.48 0.48 90 1012.0
20260506214903 54 0 0.0 0.0 0.00 0.48 0.48 90 1012.0
20260506214803 54 287 0.0 2.0 0.00 0.48 0.48 90 1012.0
20260506214703 54 287 0.0 4.0 0.00 0.48 0.48 90 1011.9
20260506214604 54 286 0.0 4.0 0.00 0.48 0.48 90 1011.9
20260506214503 54 286 1.0 4.0 0.00 0.48 0.48 90 1011.9
20260506214403 54 287 1.0 4.0 0.00 0.48 0.48 90 1012.0
20260506214303 54 287 1.0 4.0 0.00 0.48 0.48 90 1012.0
20260506214203 54 287 1.0 4.0 0.00 0.48 0.48 90 1012.0
20260506214103 54 287 2.0 5.0 0.00 0.48 0.48 90 1012.0
20260506214003 54 287 2.0 5.0 0.00 0.48 0.48 90 1012.0
20260506213903 54 287 2.0 5.0 0.00 0.48 0.48 90 1011.9
20260506213803 54 287 2.0 5.0 0.00 0.48 0.48 90 1011.9
20260506213703 54 287 2.0 5.0 0.00 0.48 0.48 90 1011.9
20260506213603 54 287 2.0 5.0 0.00 0.48 0.48 90 1011.9
20260506213503 54 288 2.0 5.0 0.00 0.48 0.48 90 1012.0
20260506213403 54 287 2.0 5.0 0.00 0.48 0.48 90 1012.0
20260506213303 54 288 2.0 5.0 0.00 0.48 0.48 90 1012.0
20260506213203 54 287 2.0 5.0 0.00 0.48 0.48 90 1012.0
20260506213103 54 287 2.0 4.0 0.00 0.48 0.48 90 1012.0
20260506213003 54 287 2.0 4.0 0.00 0.48 0.48 90 1012.0
20260506212903 54 287 2.0 4.0 0.00 0.48 0.48 89 1012.0
20260506212803 54 287 1.0 4.0 0.00 0.48 0.48 89 1012.0
20260506212703 54 287 1.0 4.0 0.00 0.48 0.48 89 1012.0
20260506212603 54 287 1.0 4.0 0.00 0.48 0.48 89 1012.0
20260506212503 54 287 1.0 4.0 0.00 0.48 0.48 90 1012.0
20260506212404 54 287 1.0 4.0 0.00 0.48 0.48 90 1012.1
20260506212306 54 287 1.0 4.0 0.00 0.48 0.48 90 1012.1
20260506212204 54 287 1.0 4.0 0.00 0.48 0.48 90 1012.0
20260506212104 54 287 1.0 4.0 0.00 0.48 0.48 90 1012.0
20260506212004 54 288 1.0 4.0 0.00 0.48 0.48 90 1012.0
20260506211904 54 288 1.0 4.0 0.00 0.48 0.48 90 1012.0
20260506211804 54 288 1.0 4.0 0.00 0.48 0.48 90 1012.0
20260506211704 54 289 1.0 4.0 0.00 0.48 0.48 90 1012.1
20260506211604 54 289 1.0 4.0 0.00 0.48 0.48 90 1012.1
20260506211504 54 289 1.0 4.0 0.00 0.48 0.48 90 1012.1
20260506211404 54 289 1.0 4.0 0.00 0.48 0.48 90 1012.1
20260506211304 54 290 1.0 4.0 0.00 0.48 0.48 90 1012.2
20260506211204 54 290 1.0 3.0 0.00 0.48 0.48 90 1012.2
20260506211104 54 292 1.0 3.0 0.00 0.48 0.48 90 1012.0
20260506211004 54 293 1.0 3.0 0.00 0.48 0.48 90 1012.0
20260506210904 54 293 1.0 3.0 0.00 0.48 0.48 90 1012.1
20260506210804 54 293 1.0 3.0 0.00 0.48 0.48 90 1012.1
20260506210704 54 293 1.0 5.0 0.00 0.48 0.48 90 1012.1
20260506210604 54 292 1.0 5.0 0.00 0.48 0.48 90 1012.0
20260506210504 54 291 1.0 5.0 0.00 0.48 0.48 90 1012.0
20260506210404 54 291 2.0 5.0 0.00 0.48 0.48 90 1012.0
20260506210304 54 290 2.0 5.0 0.00 0.48 0.48 90 1012.0
20260506210204 54 290 2.0 5.0 0.00 0.48 0.48 90 1012.0
20260506210104 54 288 2.0 5.0 0.00 0.48 0.48 90 1011.9
20260506210004 54 288 2.0 5.0 0.00 0.48 0.48 90 1012.0
20260506205903 54 288 2.0 5.0 0.00 0.48 0.48 90 1012.0
20260506205803 54 288 2.0 5.0 0.00 0.48 0.48 90 1012.0
20260506205703 54 288 1.0 4.0 0.00 0.48 0.48 90 1012.0
20260506205603 54 289 1.0 4.0 0.00 0.48 0.48 90 1012.0
20260506205503 54 290 1.0 4.0 0.00 0.48 0.48 90 1011.9
20260506205403 54 289 1.0 6.0 0.00 0.48 0.48 90 1011.9
20260506205306 54 288 2.0 6.0 0.00 0.48 0.48 90 1011.9
20260506205203 54 288 2.0 6.0 0.00 0.48 0.48 90 1011.9
20260506205103 54 288 2.0 6.0 0.00 0.48 0.48 90 1011.9
20260506205004 54 288 2.0 6.0 0.00 0.48 0.48 90 1011.8
20260506204903 54 288 2.0 6.0 0.00 0.48 0.48 90 1011.8
20260506204803 54 289 2.0 6.0 0.00 0.48 0.48 90 1011.8
20260506204703 54 289 2.0 6.0 0.00 0.48 0.48 90 1011.8
20260506204603 54 288 2.0 6.0 0.00 0.48 0.48 90 1011.7
20260506204503 54 289 2.0 6.0 0.00 0.48 0.48 90 1011.7
20260506204403 54 289 2.0 6.0 0.00 0.48 0.48 90 1011.7
20260506204303 54 291 2.0 6.0 0.00 0.48 0.48 90 1011.7
20260506204203 54 293 2.0 6.0 0.00 0.48 0.48 90 1011.7
20260506204103 54 296 2.0 6.0 0.00 0.48 0.48 90 1011.7
20260506204003 54 300 2.0 5.0 0.00 0.48 0.48 90 1011.8
20260506203903 54 301 2.0 5.0 0.00 0.48 0.48 90 1011.8
20260506203803 54 300 2.0 5.0 0.00 0.48 0.48 90 1011.7
20260506203703 54 299 2.0 5.0 0.00 0.48 0.48 90 1011.7
20260506203603 54 298 2.0 5.0 0.00 0.48 0.48 90 1011.7
20260506203503 54 297 2.0 6.0 0.00 0.48 0.48 90 1011.7
20260506203403 54 295 3.0 6.0 0.00 0.48 0.48 90 1011.7
20260506203303 54 294 3.0 6.0 0.00 0.48 0.48 90 1011.7
20260506203203 54 293 3.0 6.0 0.00 0.48 0.48 89 1011.7
20260506203103 54 291 3.0 6.0 0.00 0.48 0.48 89 1011.7
20260506203003 54 289 3.0 6.0 0.00 0.48 0.48 89 1011.7
20260506202903 54 287 3.0 6.0 0.00 0.48 0.48 89 1011.5
20260506202803 54 287 3.0 6.0 0.00 0.48 0.48 89 1011.5
20260506202703 54 287 3.0 6.0 0.00 0.48 0.48 89 1011.5
20260506202603 54 287 3.0 7.0 0.00 0.48 0.48 89 1011.5
20260506202504 54 287 3.0 7.0 0.00 0.48 0.48 89 1011.5
20260506202403 54 287 3.0 7.0 0.00 0.48 0.48 89 1011.5
20260506202306 54 286 3.0 7.0 0.00 0.48 0.48 89 1011.5
20260506202203 54 286 3.0 7.0 0.00 0.48 0.48 89 1011.6
20260506202104 54 286 3.0 7.0 0.00 0.48 0.48 89 1011.6
20260506202004 54 286 3.0 7.0 0.00 0.48 0.48 89 1011.6
20260506201904 54 287 3.0 7.0 0.00 0.48 0.48 89 1011.5
20260506201804 54 287 3.0 7.0 0.00 0.48 0.48 89 1011.5
20260506201704 54 287 3.0 7.0 0.00 0.48 0.48 90 1011.5
20260506201604 54 287 3.0 6.0 0.00 0.48 0.48 90 1011.5
20260506201504 54 287 3.0 6.0 0.00 0.48 0.48 90 1011.6
20260506201404 54 287 3.0 6.0 0.00 0.48 0.48 90 1011.5
20260506201304 54 288 3.0 6.0 0.00 0.48 0.48 90 1011.5
20260506201204 54 288 3.0 6.0 0.00 0.48 0.48 90 1011.5
20260506201104 54 288 3.0 6.0 0.00 0.48 0.48 89 1011.5
20260506201004 54 288 3.0 6.0 0.00 0.48 0.48 89 1011.5
20260506200904 54 290 3.0 6.0 0.00 0.48 0.48 89 1011.4
20260506200804 54 290 3.0 6.0 0.00 0.48 0.48 89 1011.4
20260506200704 54 291 2.0 6.0 0.00 0.48 0.48 89 1011.5
20260506200604 54 291 2.0 6.0 0.00 0.48 0.48 89 1011.5
20260506200504 54 291 2.0 6.0 0.00 0.48 0.48 89 1011.5
20260506200404 54 295 2.0 6.0 0.00 0.48 0.48 89 1011.5
20260506200304 54 299 3.0 6.0 0.00 0.48 0.48 89 1011.5
20260506200204 54 310 2.0 5.0 0.00 0.48 0.48 89 1011.5
20260506200104 54 310 2.0 5.0 0.00 0.48 0.48 89 1011.5
20260506200004 54 309 2.0 5.0 0.00 0.48 0.48 89 1011.5
20260506195903 54 308 2.0 5.0 0.00 0.48 0.48 90 1011.5
20260506195803 54 306 2.0 7.0 0.00 0.48 0.48 90 1011.5
20260506195703 54 303 3.0 9.0 0.00 0.48 0.48 90 1011.5
20260506195603 54 302 3.0 9.0 0.00 0.48 0.48 90 1011.5
20260506195503 54 301 3.0 9.0 0.00 0.48 0.48 90 1011.5
20260506195403 54 297 3.0 9.0 0.00 0.48 0.48 90 1011.5
20260506195306 54 292 3.0 9.0 0.00 0.48 0.48 90 1011.5
20260506195203 54 285 3.0 9.0 0.00 0.48 0.48 90 1011.5
20260506195103 54 285 2.0 9.0 0.00 0.48 0.48 90 1011.4
20260506195003 54 285 2.0 9.0 0.00 0.48 0.48 90 1011.4
20260506194903 54 285 2.0 9.0 0.00 0.48 0.48 90 1011.4
20260506194803 54 286 2.0 9.0 0.00 0.48 0.48 90 1011.3
20260506194703 54 285 1.0 4.0 0.00 0.48 0.48 90 1011.3
20260506194603 54 285 1.0 3.0 0.00 0.48 0.48 89 1011.4
20260506194503 54 286 2.0 7.0 0.00 0.48 0.48 89 1011.4
20260506194403 54 287 2.0 7.0 0.00 0.48 0.48 89 1011.3
20260506194303 54 289 1.0 7.0 0.00 0.48 0.48 89 1011.3
20260506194203 54 288 1.0 7.0 0.00 0.48 0.48 89 1011.3
20260506194103 54 289 1.0 7.0 0.00 0.48 0.48 89 1011.2
20260506194003 54 289 1.0 7.0 0.00 0.48 0.48 89 1011.2
20260506193903 54 289 1.0 7.0 0.00 0.48 0.48 89 1011.1
20260506193803 54 289 1.0 7.0 0.00 0.48 0.48 89 1011.2
20260506193703 54 289 1.0 7.0 0.00 0.48 0.48 89 1011.2
20260506193603 54 289 1.0 7.0 0.00 0.48 0.48 89 1011.2
20260506193503 54 289 1.0 4.0 0.00 0.48 0.48 89 1011.2
20260506193403 54 289 1.0 5.0 0.00 0.48 0.48 89 1011.2
20260506193303 54 288 1.0 5.0 0.00 0.48 0.48 89 1011.0
20260506193203 54 287 2.0 6.0 0.00 0.48 0.48 89 1011.0
20260506193103 54 287 2.0 6.0 0.00 0.48 0.48 89 1011.1
20260506193003 54 287 2.0 6.0 0.00 0.48 0.48 89 1011.0
20260506192903 54 287 2.0 6.0 0.00 0.48 0.48 89 1011.0
20260506192804 54 287 2.0 6.0 0.00 0.48 0.48 89 1011.0
20260506192704 54 287 2.0 6.0 0.00 0.48 0.48 89 1011.0
20260506192604 54 287 2.0 6.0 0.00 0.48 0.48 89 1011.0
20260506192504 54 287 2.0 6.0 0.00 0.48 0.48 89 1010.9
20260506192404 54 287 2.0 6.0 0.00 0.48 0.48 89 1010.9
20260506192305 54 287 1.0 6.0 0.00 0.48 0.48 89 1010.8
20260506192204 54 288 1.0 4.0 0.00 0.48 0.48 90 1010.8
20260506192104 54 289 1.0 4.0 0.00 0.48 0.48 90 1010.8
20260506192004 54 291 1.0 4.0 0.00 0.48 0.48 90 1010.8
20260506191904 54 293 1.0 3.0 0.00 0.48 0.48 89 1010.8
20260506191804 54 294 1.0 3.0 0.00 0.48 0.48 89 1010.9
20260506191704 54 294 1.0 6.0 0.00 0.48 0.48 89 1010.8
20260506191604 54 293 1.0 6.0 0.00 0.48 0.48 89 1010.8
20260506191504 54 291 2.0 7.0 0.00 0.48 0.48 89 1010.8
20260506191404 54 290 2.0 8.0 0.00 0.48 0.48 89 1010.8
20260506191304 54 290 2.0 8.0 0.00 0.48 0.48 89 1010.7
20260506191204 55 289 3.0 8.0 0.00 0.48 0.48 89 1010.6
20260506191104 54 289 3.0 8.0 0.01 0.48 0.48 89 1010.6
20260506191004 55 288 3.0 8.0 0.01 0.48 0.48 89 1010.5
20260506190904 55 288 4.0 8.0 0.01 0.48 0.48 89 1010.5
20260506190804 55 287 4.0 8.0 0.01 0.48 0.48 89 1010.5
20260506190703 54 287 4.0 8.0 0.01 0.48 0.48 89 1010.5
20260506190603 54 287 4.0 8.0 0.01 0.48 0.48 89 1010.5
20260506190504 55 287 3.0 8.0 0.01 0.48 0.48 89 1010.5
20260506190403 55 287 3.0 9.0 0.01 0.48 0.48 89 1010.4
20260506190303 55 287 3.0 9.0 0.01 0.48 0.48 89 1010.4
20260506190204 55 287 3.0 9.0 0.01 0.48 0.48 90 1010.3
20260506190103 55 288 3.0 9.0 0.01 0.48 0.48 90 1010.3
20260506190004 54 287 3.0 9.0 0.01 0.48 0.48 90 1010.4
20260506185903 55 287 3.0 9.0 0.01 0.48 0.48 90 1010.3
20260506185803 54 287 2.0 9.0 0.01 0.48 0.48 90 1010.3
20260506185703 55 287 2.0 9.0 0.01 0.48 0.48 90 1010.3
20260506185603 55 288 2.0 9.0 0.02 0.48 0.48 90 1010.3
20260506185503 55 288 2.0 9.0 0.02 0.48 0.48 90 1010.2
20260506185403 55 288 2.0 6.0 0.02 0.48 0.48 90 1010.2
20260506185306 55 288 2.0 7.0 0.03 0.48 0.48 90 1010.2
20260506185203 55 289 2.0 7.0 0.05 0.48 0.48 91 1010.0
20260506185103 55 288 2.0 7.0 0.06 0.48 0.48 91 1010.0
20260506185003 55 289 2.0 7.0 0.07 0.48 0.48 91 1010.0
20260506184903 55 289 2.0 7.0 0.09 0.48 0.48 91 1009.9
20260506184803 55 289 3.0 7.0 0.10 0.48 0.48 91 1009.9
20260506184703 55 290 3.0 7.0 0.13 0.48 0.48 91 1009.9
20260506184603 55 290 3.0 7.0 0.16 0.48 0.48 91 1009.9
20260506184503 55 290 3.0 7.0 0.16 0.48 0.48 91 1009.9
20260506184403 55 290 3.0 7.0 0.19 0.48 0.48 91 1009.8
20260506184303 55 290 3.0 8.0 0.25 0.48 0.48 91 1009.8
20260506184203 55 289 3.0 9.0 0.27 0.48 0.48 91 1009.8
20260506184103 55 289 3.0 9.0 0.29 0.48 0.48 91 1009.8
20260506184003 55 289 3.0 9.0 0.30 0.48 0.48 91 1009.8
20260506183903 55 289 3.0 9.0 0.31 0.48 0.48 91 1009.8
20260506183803 55 289 2.0 9.0 0.33 0.48 0.48 91 1009.8
20260506183703 55 287 2.0 9.0 0.33 0.48 0.48 91 1009.8
20260506183603 55 286 2.0 9.0 0.33 0.48 0.48 91 1009.7
20260506183503 55 286 2.0 9.0 0.34 0.48 0.48 91 1009.7
20260506183403 55 286 2.0 9.0 0.34 0.48 0.48 91 1009.8
20260506183303 55 286 2.0 9.0 0.34 0.48 0.48 91 1009.7
20260506183204 55 286 2.0 6.0 0.34 0.48 0.48 91 1009.7
20260506183104 55 285 2.0 6.0 0.34 0.48 0.48 91 1009.7
20260506183005 55 285 2.0 6.0 0.34 0.48 0.48 91 1009.7
20260506182903 55 288 2.0 6.0 0.34 0.48 0.48 91 1009.6
20260506182804 55 289 2.0 6.0 0.34 0.48 0.48 91 1009.4
20260506182704 55 291 2.0 6.0 0.34 0.48 0.48 91 1009.4
20260506182604 55 294 2.0 8.0 0.34 0.48 0.48 90 1009.4
20260506182504 56 296 2.0 9.0 0.34 0.48 0.48 90 1009.4
20260506182404 56 300 3.0 9.0 0.34 0.48 0.48 90 1009.3
20260506182306 56 303 3.0 10.0 0.34 0.48 0.48 90 1009.2
20260506182204 56 304 3.0 10.0 0.35 0.48 0.48 90 1009.2
20260506182104 56 306 3.0 10.0 0.35 0.48 0.48 90 1009.1
20260506182004 56 305 4.0 10.0 0.35 0.48 0.48 90 1009.1
20260506181904 56 305 4.0 10.0 0.35 0.48 0.48 90 1009.1
20260506181804 56 304 4.0 10.0 0.35 0.48 0.48 90 1008.9
20260506181704 56 304 4.0 10.0 0.35 0.48 0.48 90 1008.9
20260506181603 56 303 4.0 10.0 0.35 0.48 0.48 90 1008.9
20260506181504 56 302 4.0 10.0 0.35 0.48 0.48 90 1008.9
20260506181403 56 301 4.0 10.0 0.35 0.48 0.48 90 1008.9
20260506181303 56 299 4.0 9.0 0.35 0.48 0.48 90 1008.9
20260506181203 56 298 3.0 9.0 0.34 0.47 0.47 90 1008.9
20260506181103 56 295 3.0 9.0 0.34 0.47 0.47 90 1009.1
20260506181004 56 294 3.0 10.0 0.34 0.47 0.47 90 1009.1
20260506180903 56 293 3.0 10.0 0.35 0.47 0.47 90 1009.1
20260506180803 56 292 3.0 10.0 0.35 0.47 0.47 90 1009.2
20260506180703 56 291 3.0 10.0 0.35 0.47 0.47 90 1009.2
20260506180603 56 289 3.0 10.0 0.35 0.47 0.47 90 1009.3
20260506180503 56 289 4.0 13.0 0.35 0.47 0.47 90 1009.4
20260506180403 56 289 4.0 13.0 0.35 0.47 0.47 90 1009.4
20260506180303 56 289 5.0 13.0 0.35 0.47 0.47 90 1009.6
20260506180203 56 290 5.0 13.0 0.35 0.47 0.47 90 1009.6
20260506180103 56 290 5.0 13.0 0.35 0.47 0.47 90 1009.7
20260506180005 56 288 5.0 13.0 0.35 0.47 0.47 91 1009.6
20260506175903 56 287 6.0 14.0 0.35 0.47 0.47 91 1009.6
20260506175803 56 287 6.0 14.0 0.35 0.47 0.47 91 1009.6
20260506175703 56 287 6.0 14.0 0.35 0.46 0.47 90 1009.4
20260506175603 56 287 6.0 14.0 0.35 0.46 0.46 90 1009.4
20260506175503 56 289 5.0 14.0 0.35 0.46 0.46 90 1009.7
20260506175403 56 288 5.0 14.0 0.33 0.45 0.45 90 1009.7
20260506175306 56 287 5.0 14.0 0.31 0.43 0.43 90 1010.0
20260506175203 56 286 5.0 14.0 0.30 0.42 0.42 90 1010.1
20260506175103 56 286 5.0 14.0 0.29 0.41 0.41 90 1010.1
20260506175003 56 286 4.0 14.0 0.28 0.39 0.40 90 1010.0
20260506174903 56 288 4.0 11.0 0.26 0.38 0.38 90 1010.0
20260506174803 56 287 4.0 11.0 0.24 0.35 0.35 90 1010.0
20260506174703 57 285 4.0 10.0 0.22 0.34 0.34 91 1009.8
20260506174603 57 285 4.0 10.0 0.20 0.32 0.32 91 1009.8
20260506174503 57 282 4.0 10.0 0.17 0.29 0.31 90 1010.0
20260506174403 57 282 4.0 10.0 0.11 0.23 0.25 90 1010.1
20260506174303 57 281 4.0 10.0 0.09 0.21 0.21 90 1010.1
20260506174203 57 281 4.0 10.0 0.07 0.19 0.19 90 1010.1
20260506174103 57 280 4.0 10.0 0.06 0.18 0.18 90 1010.1
20260506174003 57 280 4.0 10.0 0.05 0.17 0.17 90 1010.2
20260506173903 57 280 4.0 10.0 0.04 0.16 0.16 90 1010.3
20260506173804 58 280 4.0 9.0 0.03 0.15 0.15 90 1010.3
20260506173704 58 280 4.0 8.0 0.03 0.15 0.15 90 1010.3
20260506173604 58 280 4.0 7.0 0.03 0.15 0.15 90 1010.3
20260506173504 58 281 3.0 7.0 0.02 0.14 0.14 90 1010.1
20260506173404 58 281 4.0 7.0 0.02 0.14 0.14 89 1009.9
20260506173304 58 282 4.0 7.0 0.02 0.14 0.14 90 1009.9
20260506173204 58 282 4.0 7.0 0.02 0.14 0.14 89 1009.9
20260506173104 58 282 4.0 7.0 0.02 0.14 0.14 89 1009.9
20260506173004 58 282 4.0 7.0 0.02 0.14 0.14 89 1009.7
20260506172904 58 282 3.0 7.0 0.02 0.14 0.14 89 1009.8
20260506172804 58 282 3.0 7.0 0.02 0.14 0.14 88 1009.8
20260506172704 58 282 3.0 7.0 0.02 0.14 0.14 88 1009.7
20260506172604 58 282 2.0 7.0 0.02 0.14 0.14 88 1009.7
20260506172504 58 282 2.0 7.0 0.02 0.14 0.14 88 1009.7
20260506172404 58 282 1.0 7.0 0.02 0.14 0.14 88 1009.6
20260506172306 58 282 1.0 7.0 0.02 0.13 0.13 87 1009.6
20260506172204 58 282 1.0 7.0 0.02 0.13 0.13 87 1009.6
20260506172104 58 282 0.0 5.0 0.02 0.13 0.13 88 1009.5
20260506172003 58 0 0.0 0.0 0.02 0.13 0.13 88 1009.5
20260506171904 58 0 0.0 0.0 0.02 0.13 0.13 88 1009.4
20260506171804 58 0 0.0 0.0 0.02 0.13 0.13 88 1009.4
20260506171704 58 0 0.0 0.0 0.02 0.13 0.13 88 1009.4
20260506171604 58 0 0.0 0.0 0.02 0.13 0.13 87 1009.3
20260506171504 58 0 0.0 0.0 0.02 0.13 0.13 87 1009.3
20260506171403 58 288 0.0 1.0 0.02 0.13 0.13 87 1009.3
20260506171303 59 289 0.0 3.0 0.02 0.13 0.13 87 1009.3
20260506171203 59 293 0.0 3.0 0.02 0.13 0.13 87 1009.3
20260506171103 59 293 0.0 3.0 0.02 0.13 0.13 87 1009.3
20260506171004 59 294 0.0 3.0 0.01 0.13 0.13 87 1009.3
20260506170903 59 294 0.0 3.0 0.01 0.13 0.13 87 1009.3
20260506170803 59 296 0.0 3.0 0.01 0.13 0.13 87 1009.2
20260506170703 59 296 1.0 3.0 0.01 0.13 0.13 87 1009.2
20260506170603 59 296 1.0 3.0 0.01 0.13 0.13 86 1009.2
20260506170503 59 296 1.0 3.0 0.01 0.13 0.13 87 1009.2
20260506170403 59 296 1.0 3.0 0.01 0.13 0.13 86 1009.1
20260506170303 59 298 1.0 3.0 0.01 0.13 0.13 86 1009.1
20260506170203 59 298 1.0 3.0 0.01 0.13 0.13 86 1009.1
20260506170103 59 298 1.0 3.0 0.01 0.13 0.13 86 1009.0
20260506170004 59 300 1.0 4.0 0.00 0.12 0.12 86 1009.0
20260506165903 59 300 1.0 4.0 0.00 0.12 0.12 86 1009.0
20260506165803 59 300 1.0 4.0 0.00 0.12 0.12 86 1008.9
20260506165703 59 301 1.0 4.0 0.00 0.12 0.12 86 1008.9
20260506165603 59 301 1.0 4.0 0.00 0.12 0.12 85 1008.8
20260506165503 59 301 1.0 4.0 0.00 0.12 0.12 85 1008.9
20260506165403 59 302 1.0 4.0 0.00 0.12 0.12 85 1008.9
20260506165305 59 302 1.0 4.0 0.00 0.12 0.12 86 1008.8
20260506165203 59 302 1.0 4.0 0.00 0.12 0.12 86 1008.8
20260506165103 59 302 1.0 4.0 0.00 0.12 0.12 86 1008.9
20260506165003 59 299 1.0 3.0 0.00 0.12 0.12 86 1008.9
20260506164903 59 299 1.0 3.0 0.00 0.12 0.12 86 1008.9
20260506164804 59 297 1.0 3.0 0.00 0.12 0.12 86 1008.9
20260506164703 60 297 1.0 3.0 0.00 0.12 0.12 86 1008.9
20260506164603 60 297 0.0 3.0 0.00 0.12 0.12 86 1008.8
20260506164503 60 292 0.0 3.0 0.00 0.12 0.12 86 1008.8
20260506164403 60 290 0.0 3.0 0.00 0.12 0.12 86 1008.8
20260506164303 60 286 0.0 5.0 0.00 0.12 0.12 86 1008.9
20260506164203 60 286 0.0 5.0 0.00 0.12 0.12 86 1008.9
20260506164103 60 286 0.0 5.0 0.00 0.12 0.12 86 1008.9
20260506164003 60 285 0.0 5.0 0.00 0.12 0.12 86 1008.9
20260506163903 60 284 0.0 5.0 0.00 0.12 0.12 86 1008.9
20260506163803 60 284 0.0 5.0 0.00 0.12 0.12 86 1008.9
20260506163703 60 285 0.0 5.0 0.00 0.12 0.12 86 1008.9
20260506163604 60 290 1.0 5.0 0.00 0.12 0.12 86 1008.9
20260506163504 60 291 1.0 5.0 0.00 0.12 0.12 86 1008.9
20260506163404 60 291 1.0 5.0 0.00 0.12 0.12 86 1008.9
20260506163304 60 296 0.0 5.0 0.00 0.12 0.12 86 1008.8
20260506163204 60 297 0.0 4.0 0.00 0.12 0.12 86 1008.7
20260506163104 60 298 0.0 4.0 0.00 0.12 0.12 86 1008.7
20260506163004 60 298 0.0 4.0 0.00 0.12 0.12 86 1008.7
20260506162904 60 296 0.0 4.0 0.00 0.12 0.12 86 1008.7
20260506162804 60 296 0.0 4.0 0.00 0.12 0.12 86 1008.7
20260506162704 60 294 1.0 4.0 0.00 0.12 0.12 86 1008.7
20260506162604 60 288 1.0 5.0 0.00 0.12 0.12 86 1008.7
20260506162504 60 285 1.0 6.0 0.00 0.12 0.12 86 1008.7
20260506162404 60 285 1.0 6.0 0.00 0.12 0.12 86 1008.7
20260506162306 60 285 1.0 6.0 0.00 0.12 0.12 85 1008.7
20260506162204 60 284 1.0 6.0 0.00 0.12 0.12 85 1008.7
20260506162104 60 285 1.0 6.0 0.00 0.12 0.12 85 1008.7
20260506162004 60 285 1.0 6.0 0.00 0.12 0.12 85 1008.7
20260506161904 60 285 1.0 6.0 0.00 0.12 0.12 85 1008.6
20260506161804 60 285 1.0 6.0 0.00 0.12 0.12 85 1008.6
20260506161704 60 285 1.0 6.0 0.00 0.12 0.12 85 1008.7
20260506161604 60 285 1.0 6.0 0.00 0.12 0.12 85 1008.7
20260506161503 60 287 1.0 4.0 0.00 0.12 0.12 85 1008.6
20260506161403 60 287 1.0 6.0 0.00 0.12 0.12 85 1008.6
20260506161303 60 287 1.0 6.0 0.00 0.12 0.12 85 1008.6
20260506161203 60 288 1.0 6.0 0.00 0.12 0.12 85 1008.4
20260506161103 60 287 2.0 6.0 0.00 0.12 0.12 85 1008.4
20260506161004 60 286 2.0 6.0 0.00 0.12 0.12 85 1008.4
20260506160903 60 286 2.0 6.0 0.00 0.12 0.12 85 1008.3
20260506160803 60 286 2.0 6.0 0.00 0.12 0.12 85 1008.3
20260506160703 60 286 3.0 6.0 0.00 0.12 0.12 85 1008.3
20260506160603 59 286 3.0 10.0 0.00 0.12 0.12 85 1008.3
20260506160503 59 286 3.0 10.0 0.00 0.12 0.12 86 1008.3
20260506160403 59 286 3.0 10.0 0.00 0.12 0.12 86 1008.1
20260506160303 59 285 3.0 10.0 0.00 0.12 0.12 86 1008.1
20260506160203 59 285 3.0 10.0 0.00 0.12 0.12 86 1008.0
20260506160103 59 286 3.0 10.0 0.00 0.12 0.12 86 1007.9
20260506160004 59 286 3.0 10.0 0.00 0.12 0.12 86 1007.9
20260506155903 59 287 3.0 10.0 0.00 0.12 0.12 86 1007.8
20260506155803 59 288 3.0 10.0 0.00 0.12 0.12 86 1007.8
20260506155703 59 288 3.0 10.0 0.00 0.12 0.12 86 1007.7
20260506155603 59 289 3.0 7.0 0.00 0.12 0.12 86 1007.6
20260506155503 59 290 3.0 7.0 0.00 0.12 0.12 86 1007.6
20260506155403 59 290 3.0 7.0 0.00 0.12 0.12 86 1007.6
20260506155306 59 290 3.0 7.0 0.00 0.12 0.12 86 1007.6
20260506155203 59 291 3.0 7.0 0.00 0.12 0.12 86 1007.5
20260506155103 59 290 3.0 7.0 0.00 0.12 0.12 86 1007.5
20260506155003 59 290 3.0 7.0 0.00 0.12 0.12 86 1007.5
20260506154903 59 289 3.0 7.0 0.00 0.12 0.12 86 1007.5
20260506154803 59 290 3.0 8.0 0.00 0.12 0.12 86 1007.5
20260506154703 59 290 3.0 8.0 0.00 0.12 0.12 86 1007.5
20260506154603 59 289 3.0 8.0 0.00 0.12 0.12 86 1007.6
20260506154503 59 289 4.0 8.0 0.00 0.12 0.12 86 1007.6
20260506154403 59 290 4.0 8.0 0.00 0.12 0.12 86 1007.6
20260506154303 59 289 4.0 8.0 0.00 0.12 0.12 86 1007.6
20260506154203 59 289 3.0 8.0 0.00 0.12 0.12 86 1007.6
20260506154103 59 289 3.0 8.0 0.00 0.12 0.12 86 1007.6
20260506154004 59 288 3.0 8.0 0.00 0.12 0.12 86 1007.6
20260506153904 59 289 3.0 8.0 0.00 0.12 0.12 86 1007.6
20260506153804 59 289 3.0 9.0 0.00 0.12 0.12 86 1007.7
20260506153704 59 288 3.0 9.0 0.00 0.12 0.12 86 1007.7
20260506153604 59 288 3.0 9.0 0.00 0.12 0.12 86 1007.8
20260506153504 59 288 3.0 9.0 0.00 0.12 0.12 86 1007.8
20260506153404 59 288 3.0 9.0 0.00 0.12 0.12 86 1007.9
20260506153304 59 289 3.0 9.0 0.00 0.12 0.12 86 1008.1
20260506153204 59 288 3.0 9.0 0.00 0.12 0.12 86 1008.1
20260506153104 59 288 4.0 9.0 0.00 0.12 0.12 86 1007.9
20260506153004 59 289 4.0 9.0 0.00 0.12 0.12 86 1008.0
20260506152904 59 290 4.0 9.0 0.00 0.12 0.12 86 1008.0
20260506152804 59 290 4.0 9.0 0.00 0.12 0.12 86 1008.0
20260506152704 59 290 3.0 9.0 0.00 0.12 0.12 86 1008.0
20260506152604 59 291 4.0 9.0 0.00 0.12 0.12 86 1008.1
20260506152504 59 291 4.0 9.0 0.00 0.12 0.12 86 1008.0
20260506152404 59 291 4.0 9.0 0.00 0.12 0.12 86 1008.0
20260506152305 60 291 4.0 9.0 0.00 0.12 0.12 86 1008.0
20260506152204 60 291 4.0 10.0 0.00 0.12 0.12 86 1008.0
20260506152104 60 291 4.0 10.0 0.00 0.12 0.12 86 1008.1
20260506152004 60 291 4.0 10.0 0.00 0.12 0.12 86 1008.1
20260506151904 60 291 4.0 10.0 0.00 0.12 0.12 86 1008.1
20260506151803 60 290 4.0 10.0 0.00 0.12 0.12 86 1008.2
20260506151703 60 290 4.0 13.0 0.00 0.12 0.12 86 1008.1
20260506151603 60 289 4.0 13.0 0.00 0.12 0.12 86 1008.1
20260506151503 60 289 4.0 13.0 0.00 0.12 0.12 86 1008.3
20260506151403 60 288 4.0 13.0 0.00 0.12 0.12 86 1008.3
20260506151303 59 288 4.0 13.0 0.00 0.12 0.12 86 1008.3
20260506151203 59 288 4.0 13.0 0.00 0.12 0.12 86 1008.4
20260506151103 59 288 4.0 13.0 0.00 0.12 0.12 86 1008.4
20260506151004 59 288 4.0 13.0 0.00 0.12 0.12 86 1008.5
20260506150903 59 287 4.0 13.0 0.00 0.12 0.12 86 1008.5
20260506150803 59 288 4.0 13.0 0.00 0.12 0.12 86 1008.3
20260506150703 59 287 3.0 11.0 0.00 0.12 0.12 86 1008.4
20260506150603 59 287 3.0 11.0 0.00 0.12 0.12 86 1008.4
20260506150504 59 286 3.0 11.0 0.00 0.12 0.12 86 1008.4
20260506150403 59 286 3.0 11.0 0.00 0.12 0.12 86 1008.4
20260506150305 59 286 3.0 11.0 0.00 0.12 0.12 85 1008.4
20260506150203 59 285 3.0 12.0 0.00 0.12 0.12 86 1008.5
20260506150103 59 285 3.0 12.0 0.00 0.12 0.12 86 1008.5
20260506150004 60 285 4.0 12.0 0.00 0.12 0.12 85 1008.5
20260506145903 60 285 4.0 12.0 0.00 0.12 0.12 86 1008.5
20260506145803 60 285 4.0 12.0 0.00 0.12 0.12 85 1008.5
20260506145703 60 285 4.0 12.0 0.00 0.12 0.12 85 1008.5
20260506145603 60 285 4.0 12.0 0.00 0.12 0.12 85 1008.5
20260506145503 60 285 4.0 12.0 0.00 0.12 0.12 85 1008.4
20260506145403 60 285 4.0 12.0 0.00 0.12 0.12 84 1008.3
20260506145305 60 285 4.0 12.0 0.00 0.12 0.12 84 1008.3
20260506145203 60 285 4.0 10.0 0.00 0.12 0.12 84 1008.3
20260506145103 60 285 4.0 9.0 0.00 0.12 0.12 84 1008.3
20260506145003 60 286 4.0 10.0 0.00 0.12 0.12 84 1008.3
20260506144903 59 286 4.0 10.0 0.00 0.12 0.12 84 1008.2
20260506144803 59 287 4.0 10.0 0.00 0.12 0.12 84 1008.2
20260506144703 59 287 4.0 10.0 0.00 0.12 0.12 84 1008.2
20260506144603 59 287 4.0 10.0 0.00 0.12 0.12 84 1008.2
20260506144503 59 287 4.0 10.0 0.00 0.12 0.12 84 1008.2
20260506144403 59 287 5.0 10.0 0.00 0.12 0.12 84 1008.2
20260506144303 59 286 5.0 10.0 0.00 0.12 0.12 85 1008.2
20260506144203 59 286 5.0 10.0 0.00 0.12 0.12 85 1008.2
20260506144103 59 286 5.0 10.0 0.00 0.12 0.12 85 1008.2
20260506144003 59 286 5.0 10.0 0.00 0.12 0.12 85 1008.2
20260506143903 59 285 5.0 10.0 0.00 0.12 0.12 85 1008.3
20260506143803 59 285 5.0 10.0 0.00 0.12 0.12 85 1008.3
20260506143703 59 285 5.0 12.0 0.00 0.12 0.12 85 1008.4
20260506143604 59 285 6.0 12.0 0.00 0.12 0.12 85 1008.4
20260506143504 59 285 6.0 12.0 0.00 0.12 0.12 85 1008.4
20260506143404 59 284 6.0 12.0 0.00 0.12 0.12 85 1008.3
20260506143304 59 284 6.0 12.0 0.00 0.12 0.12 85 1008.3
20260506143204 59 284 6.0 12.0 0.00 0.12 0.12 85 1008.3
20260506143104 59 284 6.0 12.0 0.00 0.12 0.12 86 1008.2
20260506143004 59 285 6.0 12.0 0.00 0.12 0.12 85 1008.2
20260506142904 59 285 6.0 12.0 0.00 0.12 0.12 85 1008.3
20260506142804 59 285 6.0 12.0 0.00 0.12 0.12 85 1008.1
20260506142704 59 285 5.0 11.0 0.00 0.12 0.12 85 1008.1
20260506142604 59 285 5.0 12.0 0.00 0.12 0.12 86 1008.2
20260506142504 59 285 5.0 12.0 0.00 0.12 0.12 86 1008.2
20260506142404 59 286 5.0 12.0 0.00 0.12 0.12 86 1008.2
20260506142306 59 286 5.0 12.0 0.00 0.12 0.12 86 1008.1
20260506142204 59 286 5.0 12.0 0.00 0.12 0.12 87 1008.1
20260506142104 59 285 5.0 15.0 0.00 0.12 0.12 87 1008.2
20260506142004 59 285 5.0 15.0 0.00 0.12 0.12 87 1008.2
20260506141904 59 284 6.0 15.0 0.00 0.12 0.12 87 1008.2
20260506141804 59 284 6.0 15.0 0.00 0.12 0.12 87 1008.3
20260506141703 59 284 6.0 15.0 0.00 0.12 0.12 87 1008.3
20260506141603 59 284 6.0 15.0 0.00 0.12 0.12 88 1008.3
20260506141504 59 284 6.0 15.0 0.00 0.12 0.12 88 1008.3
20260506141403 59 284 7.0 15.0 0.00 0.12 0.12 88 1008.3
20260506141307 59 284 7.0 15.0 0.00 0.12 0.12 88 1008.4
20260506141203 59 284 7.0 15.0 0.00 0.12 0.12 88 1008.4
20260506141103 59 283 7.0 14.0 0.00 0.12 0.12 88 1008.3
20260506141004 59 283 7.0 14.0 0.00 0.12 0.12 88 1008.3
20260506140903 59 283 7.0 16.0 0.00 0.12 0.12 88 1008.3
20260506140803 59 283 8.0 16.0 0.00 0.12 0.12 88 1008.3
20260506140703 59 283 8.0 16.0 0.00 0.12 0.12 88 1008.3
20260506140604 60 283 8.0 16.0 0.00 0.12 0.12 87 1008.4
20260506140503 60 283 8.0 17.0 0.00 0.12 0.12 87 1008.4
20260506140403 60 283 8.0 17.0 0.00 0.12 0.12 87 1008.4
20260506140303 60 282 9.0 18.0 0.00 0.12 0.12 87 1008.4
20260506140203 60 282 9.0 21.0 0.00 0.12 0.12 87 1008.4
20260506140103 60 282 10.0 21.0 0.00 0.12 0.12 86 1008.3
20260506140005 60 282 10.0 21.0 0.00 0.12 0.12 86 1008.4
20260506135903 60 282 10.0 21.0 0.00 0.12 0.12 86 1008.4
20260506135803 60 282 10.0 21.0 0.00 0.12 0.12 86 1008.4
20260506135703 61 282 10.0 21.0 0.00 0.12 0.12 86 1008.4
20260506135603 61 282 10.0 21.0 0.00 0.12 0.12 86 1008.3
20260506135503 61 283 10.0 21.0 0.00 0.12 0.12 85 1008.2
20260506135403 61 282 10.0 21.0 0.00 0.12 0.12 85 1008.2
20260506135306 61 283 9.0 21.0 0.00 0.12 0.12 84 1008.2
20260506135203 61 283 9.0 17.0 0.00 0.12 0.12 84 1008.3
20260506135103 61 283 9.0 16.0 0.00 0.12 0.12 83 1008.3
20260506135003 62 283 9.0 16.0 0.00 0.12 0.12 83 1008.4
20260506134903 62 283 8.0 16.0 0.00 0.12 0.12 82 1008.4
20260506134803 62 282 7.0 16.0 0.00 0.12 0.12 81 1008.4
20260506134703 63 284 6.0 16.0 0.00 0.12 0.12 80 1008.5
20260506134603 64 287 6.0 16.0 0.00 0.12 0.12 79 1008.5
20260506134503 64 292 5.0 16.0 0.00 0.12 0.12 78 1008.4
20260506134403 65 298 5.0 13.0 0.00 0.12 0.12 77 1008.4
20260506134303 66 305 5.0 13.0 0.00 0.12 0.12 76 1008.5
20260506134203 67 314 4.0 13.0 0.00 0.12 0.12 76 1008.3
20260506134103 67 325 4.0 12.0 0.00 0.12 0.12 77 1008.3
20260506134004 67 331 4.0 12.0 0.00 0.12 0.12 78 1008.1
20260506133903 67 331 4.0 12.0 0.00 0.12 0.12 77 1008.1
20260506133803 67 330 5.0 12.0 0.00 0.12 0.12 77 1008.1
20260506133703 67 329 5.0 12.0 0.00 0.12 0.12 77 1008.0
20260506133603 67 329 6.0 12.0 0.00 0.12 0.12 77 1008.0
20260506133503 67 328 6.0 12.0 0.00 0.12 0.12 77 1008.1
20260506133403 67 328 6.0 13.0 0.00 0.12 0.12 76 1008.0
20260506133304 67 327 6.0 13.0 0.00 0.12 0.12 76 1008.0
20260506133204 67 327 6.0 15.0 0.00 0.12 0.12 76 1008.1
20260506133104 67 326 6.0 15.0 0.00 0.12 0.12 76 1008.1
20260506133004 67 327 6.0 15.0 0.00 0.12 0.12 76 1008.1
20260506132904 67 327 6.0 15.0 0.00 0.12 0.12 75 1008.0
20260506132804 67 326 5.0 15.0 0.00 0.12 0.12 76 1008.0
20260506132710 67 325 5.0 15.0 0.00 0.12 0.12 76 1008.1
20260506132604 67 325 5.0 15.0 0.00 0.12 0.12 77 1008.1
20260506132504 67 326 5.0 15.0 0.00 0.12 0.12 78 1008.1
20260506132404 67 326 5.0 15.0 0.00 0.12 0.12 78 1008.1
20260506132307 67 324 5.0 15.0 0.00 0.12 0.12 79 1008.1
20260506132204 67 324 5.0 12.0 0.00 0.12 0.12 79 1008.0
20260506132104 67 323 5.0 12.0 0.00 0.12 0.12 78 1008.1
20260506132005 67 322 5.0 12.0 0.00 0.12 0.12 78 1008.1
20260506131904 67 321 5.0 12.0 0.00 0.12 0.12 78 1008.1
20260506131804 67 321 5.0 12.0 0.00 0.12 0.12 78 1008.1
20260506131704 67 321 5.0 12.0 0.00 0.12 0.12 77 1008.1
20260506131604 67 321 5.0 9.0 0.00 0.12 0.12 78 1008.2
20260506131504 67 320 5.0 9.0 0.00 0.12 0.12 78 1008.2
20260506131403 67 319 5.0 9.0 0.00 0.12 0.12 77 1008.3
20260506131303 67 318 5.0 9.0 0.00 0.12 0.12 77 1008.3
20260506131203 67 318 5.0 9.0 0.00 0.12 0.12 77 1008.2
20260506131103 67 317 5.0 9.0 0.00 0.12 0.12 77 1008.3
20260506131004 68 317 5.0 9.0 0.00 0.12 0.12 77 1008.3
20260506130903 68 318 5.0 9.0 0.00 0.12 0.12 77 1008.4
20260506130803 68 318 5.0 9.0 0.00 0.12 0.12 77 1008.4
20260506130703 68 318 5.0 9.0 0.00 0.12 0.12 77 1008.3
20260506130603 68 319 4.0 9.0 0.00 0.12 0.12 77 1008.3
20260506130503 68 320 4.0 9.0 0.00 0.12 0.12 77 1008.3
20260506130403 68 322 4.0 9.0 0.00 0.12 0.12 77 1008.5
20260506130303 69 325 4.0 10.0 0.00 0.12 0.12 77 1008.4
20260506130203 69 325 4.0 10.0 0.00 0.12 0.12 77 1008.4
20260506130103 69 326 4.0 10.0 0.00 0.12 0.12 78 1008.4
20260506130010 69 326 4.0 10.0 0.00 0.12 0.12 78 1008.4
20260506125914 68 325 5.0 10.0 0.00 0.12 0.12 78 1008.5
20260506125803 68 325 4.0 10.0 0.00 0.12 0.12 79 1008.4
20260506125703 68 325 5.0 10.0 0.00 0.12 0.12 78 1008.4
20260506125603 68 324 4.0 10.0 0.00 0.12 0.12 79 1008.5
20260506125503 68 321 5.0 10.0 0.00 0.12 0.12 78 1008.5
20260506125403 68 320 5.0 10.0 0.00 0.12 0.12 78 1008.5
20260506125305 67 318 4.0 9.0 0.00 0.12 0.12 78 1008.5
20260506125203 68 318 4.0 9.0 0.00 0.12 0.12 79 1008.5
20260506125103 67 318 4.0 9.0 0.00 0.12 0.12 79 1008.5
20260506125003 67 319 4.0 8.0 0.00 0.12 0.12 80 1008.6
20260506124903 67 320 4.0 11.0 0.00 0.12 0.12 81 1008.6
20260506124803 67 320 4.0 11.0 0.00 0.12 0.12 80 1008.5
20260506124703 67 319 5.0 11.0 0.00 0.12 0.12 80 1008.5
20260506124603 67 320 5.0 11.0 0.02 0.12 0.12 81 1008.5
20260506124503 67 322 5.0 11.0 0.02 0.12 0.12 81 1008.4
20260506124403 66 322 5.0 11.0 0.02 0.12 0.12 82 1008.4
20260506124303 66 322 5.0 11.0 0.02 0.12 0.12 81 1008.5
20260506124203 66 322 5.0 11.0 0.02 0.12 0.12 82 1008.5
20260506124103 66 321 5.0 11.0 0.02 0.12 0.12 81 1008.5
20260506124003 66 321 5.0 11.0 0.02 0.12 0.12 81 1008.5
20260506123903 66 321 5.0 11.0 0.02 0.12 0.12 82 1008.5
20260506123803 66 321 5.0 11.0 0.02 0.12 0.12 83 1008.4
20260506123703 66 322 5.0 11.0 0.02 0.12 0.12 82 1008.4
20260506123603 66 323 4.0 11.0 0.02 0.12 0.12 83 1008.5
20260506123504 66 324 5.0 12.0 0.02 0.12 0.12 83 1008.3
20260506123403 66 325 5.0 12.0 0.02 0.12 0.12 83 1008.3
20260506123303 65 326 5.0 12.0 0.02 0.12 0.12 83 1008.3
20260506123204 65 327 5.0 12.0 0.02 0.12 0.12 83 1008.3
20260506123104 65 327 5.0 12.0 0.02 0.12 0.12 82 1008.3
20260506123004 65 329 5.0 12.0 0.02 0.12 0.12 82 1008.3
20260506122904 65 329 5.0 12.0 0.02 0.12 0.12 83 1008.3
20260506122804 65 330 4.0 12.0 0.02 0.12 0.12 83 1008.3
20260506122704 64 330 4.0 12.0 0.02 0.12 0.12 83 1008.4
20260506122604 64 328 4.0 12.0 0.02 0.12 0.12 84 1008.4
20260506122504 64 325 3.0 11.0 0.02 0.12 0.12 85 1008.3
20260506122404 64 320 3.0 11.0 0.02 0.12 0.12 85 1008.3
20260506122306 64 315 2.0 10.0 0.02 0.12 0.12 85 1008.2
20260506122204 64 311 2.0 10.0 0.02 0.12 0.12 85 1008.3
20260506122104 64 309 2.0 10.0 0.02 0.12 0.12 85 1008.3
20260506122004 63 299 2.0 8.0 0.02 0.12 0.12 86 1008.2
20260506121904 63 302 2.0 6.0 0.02 0.12 0.12 86 1008.2
20260506121804 63 309 2.0 7.0 0.02 0.12 0.12 86 1008.2
20260506121704 63 310 3.0 8.0 0.02 0.12 0.12 86 1008.2
20260506121604 63 313 3.0 8.0 0.02 0.12 0.12 86 1008.2
20260506121504 63 318 2.0 8.0 0.02 0.12 0.12 86 1008.2
20260506121403 63 313 3.0 9.0 0.02 0.12 0.12 86 1008.2
20260506121303 63 309 3.0 9.0 0.02 0.12 0.12 86 1008.2
20260506121203 62 311 3.0 9.0 0.02 0.12 0.12 87 1008.4
20260506121103 62 309 3.0 9.0 0.02 0.12 0.12 87 1008.4
20260506121004 62 309 3.0 9.0 0.02 0.12 0.12 87 1008.3
20260506120903 62 303 2.0 9.0 0.02 0.12 0.12 88 1008.4
20260506120803 62 296 2.0 9.0 0.02 0.12 0.12 88 1008.4
20260506120703 62 291 2.0 9.0 0.02 0.12 0.12 88 1008.3
20260506120603 62 288 2.0 9.0 0.02 0.12 0.12 88 1008.3
20260506120503 62 286 2.0 9.0 0.02 0.12 0.12 88 1008.4
20260506120403 62 288 1.0 6.0 0.02 0.12 0.12 88 1008.4
20260506120303 62 296 1.0 5.0 0.02 0.12 0.12 88 1008.4
20260506120203 62 294 1.0 6.0 0.02 0.12 0.12 88 1008.4
20260506120103 62 297 1.0 6.0 0.02 0.12 0.12 88 1008.1
20260506120004 62 301 1.0 6.0 0.02 0.12 0.12 88 1008.1
20260506115903 62 309 1.0 7.0 0.02 0.12 0.12 88 1008.0
20260506115803 62 310 2.0 7.0 0.02 0.12 0.12 88 1008.0
20260506115703 62 311 2.0 7.0 0.02 0.12 0.12 88 1008.1
20260506115603 62 313 2.0 7.0 0.02 0.12 0.12 87 1008.2
20260506115503 62 314 3.0 9.0 0.02 0.12 0.12 87 1008.2
20260506115403 62 314 3.0 9.0 0.02 0.12 0.12 86 1008.2
20260506115306 62 314 4.0 13.0 0.02 0.12 0.12 87 1008.2
20260506115203 62 314 4.0 13.0 0.02 0.12 0.12 87 1008.2
20260506115103 62 313 5.0 13.0 0.02 0.12 0.12 87 1008.2
20260506115003 62 313 5.0 13.0 0.02 0.12 0.12 87 1008.2
20260506114903 62 312 5.0 13.0 0.02 0.12 0.12 87 1008.2
20260506114803 62 312 5.0 13.0 0.02 0.12 0.12 87 1008.2
20260506114703 62 312 6.0 13.0 0.02 0.12 0.12 87 1008.2
20260506114603 62 311 6.0 13.0 0.01 0.10 0.10 87 1008.0
20260506114503 62 310 6.0 13.0 0.00 0.09 0.09 86 1008.0
20260506114403 62 311 6.0 13.0 0.00 0.09 0.09 86 1008.1
20260506114303 62 310 5.0 13.0 0.00 0.09 0.09 86 1008.2
20260506114203 62 310 5.0 13.0 0.00 0.09 0.09 86 1008.2
20260506114103 62 311 5.0 13.0 0.00 0.09 0.09 86 1008.3
20260506114003 62 310 5.0 13.0 0.00 0.09 0.09 86 1008.3
20260506113903 62 311 5.0 13.0 0.00 0.09 0.09 86 1008.3
20260506113803 63 311 5.0 13.0 0.00 0.09 0.09 85 1008.5
20260506113703 63 312 5.0 13.0 0.00 0.09 0.09 86 1008.5
20260506113603 63 313 5.0 13.0 0.00 0.09 0.09 85 1008.6
20260506113503 63 314 5.0 13.0 0.00 0.09 0.09 85 1008.6
20260506113403 63 314 6.0 13.0 0.00 0.09 0.09 85 1008.5
20260506113303 63 314 6.0 13.0 0.00 0.09 0.09 85 1008.3
20260506113203 63 314 6.0 13.0 0.00 0.09 0.09 85 1008.3
20260506113103 63 314 5.0 12.0 0.00 0.09 0.09 85 1008.5
20260506113004 63 314 5.0 11.0 0.00 0.09 0.09 84 1008.5
20260506112904 63 314 5.0 11.0 0.00 0.09 0.09 84 1008.6
20260506112804 63 314 5.0 11.0 0.00 0.09 0.09 84 1008.5
20260506112704 63 314 5.0 11.0 0.00 0.09 0.09 84 1008.5
20260506112604 63 315 5.0 10.0 0.00 0.09 0.09 84 1008.5
20260506112504 63 315 4.0 10.0 0.00 0.09 0.09 84 1008.5
20260506112404 63 316 5.0 11.0 0.00 0.09 0.09 84 1008.5
20260506112306 63 316 5.0 11.0 0.00 0.09 0.09 84 1008.6
20260506112204 63 318 5.0 11.0 0.00 0.09 0.09 84 1008.6
20260506112104 63 318 5.0 11.0 0.00 0.09 0.09 84 1008.6
20260506112004 64 319 5.0 11.0 0.00 0.09 0.09 84 1008.6
20260506111904 64 320 5.0 11.0 0.00 0.09 0.09 84 1008.6
20260506111804 64 320 5.0 11.0 0.00 0.09 0.09 84 1008.7
20260506111704 64 320 5.0 11.0 0.00 0.09 0.09 83 1008.7
20260506111604 64 319 5.0 11.0 0.00 0.09 0.09 83 1008.7
20260506111504 64 318 5.0 11.0 0.00 0.09 0.09 83 1008.8
20260506111404 64 317 4.0 10.0 0.00 0.09 0.09 83 1008.8
20260506111304 64 316 5.0 10.0 0.00 0.09 0.09 83 1008.8
20260506111204 64 315 4.0 10.0 0.00 0.09 0.09 83 1008.8
20260506111103 64 315 4.0 10.0 0.00 0.09 0.09 83 1008.8
20260506111004 64 314 4.0 10.0 0.00 0.09 0.09 83 1008.8
20260506110903 64 314 4.0 10.0 0.00 0.09 0.09 83 1008.8
20260506110803 64 314 4.0 10.0 0.00 0.09 0.09 83 1008.8
20260506110703 64 315 4.0 10.0 0.00 0.09 0.09 83 1008.8
20260506110603 64 316 4.0 10.0 0.00 0.09 0.09 83 1008.8
20260506110503 64 316 4.0 10.0 0.00 0.09 0.09 83 1008.8
20260506110403 64 316 4.0 10.0 0.00 0.09 0.09 84 1008.8
20260506110303 64 317 3.0 7.0 0.00 0.09 0.09 84 1008.9
20260506110203 64 316 3.0 7.0 0.00 0.09 0.09 84 1008.9
20260506110103 64 315 3.0 7.0 0.00 0.09 0.09 84 1008.9
20260506110004 64 314 4.0 8.0 0.00 0.09 0.09 84 1008.9
20260506105903 64 313 4.0 9.0 0.00 0.09 0.09 84 1008.9
20260506105803 64 312 4.0 9.0 0.00 0.09 0.09 84 1008.9
20260506105703 64 311 4.0 9.0 0.00 0.09 0.09 84 1008.9
20260506105603 64 311 4.0 9.0 0.00 0.09 0.09 84 1008.9
20260506105503 64 311 4.0 9.0 0.00 0.09 0.09 85 1009.0
20260506105403 64 311 4.0 9.0 0.00 0.09 0.09 85 1009.0
20260506105305 64 312 4.0 9.0 0.00 0.09 0.09 84 1009.0
20260506105203 64 313 5.0 9.0 0.00 0.09 0.09 84 1009.0
20260506105103 64 313 5.0 11.0 0.00 0.09 0.09 84 1009.0
20260506105003 64 313 4.0 12.0 0.00 0.09 0.09 84 1009.0
20260506104903 64 313 4.0 12.0 0.00 0.09 0.09 84 1009.0
20260506104803 64 313 5.0 12.0 0.00 0.09 0.09 84 1009.0
20260506104703 64 314 5.0 12.0 0.00 0.09 0.09 84 1009.0
20260506104603 64 315 5.0 12.0 0.00 0.09 0.09 84 1009.0
20260506104503 64 315 5.0 12.0 0.00 0.09 0.09 84 1009.0
20260506104403 64 316 5.0 12.0 0.00 0.09 0.09 84 1009.0
20260506104303 64 315 6.0 12.0 0.00 0.09 0.09 84 1009.0
20260506104203 63 315 6.0 12.0 0.00 0.09 0.09 85 1009.0
20260506104103 63 316 6.0 12.0 0.00 0.09 0.09 85 1009.0
20260506104003 63 316 6.0 11.0 0.00 0.09 0.09 85 1009.0
20260506103903 63 316 6.0 11.0 0.00 0.09 0.09 84 1009.1
20260506103803 63 316 6.0 11.0 0.00 0.09 0.09 84 1009.1
20260506103703 62 315 6.0 11.0 0.00 0.09 0.09 84 1009.0
20260506103603 62 314 6.0 11.0 0.00 0.09 0.09 84 1009.1
20260506103503 62 314 6.0 11.0 0.00 0.09 0.09 84 1009.1
20260506103403 62 312 5.0 11.0 0.00 0.09 0.09 85 1009.0
20260506103303 62 312 5.0 10.0 0.00 0.09 0.09 85 1009.0
20260506103204 62 311 5.0 12.0 0.00 0.09 0.09 85 1009.1
20260506103104 62 312 5.0 12.0 0.00 0.09 0.09 85 1009.0
20260506103004 62 312 5.0 12.0 0.00 0.09 0.09 85 1009.0
20260506102904 62 313 5.0 12.0 0.00 0.09 0.09 85 1009.1
20260506102804 62 314 5.0 12.0 0.00 0.09 0.09 85 1009.1
20260506102704 62 315 5.0 12.0 0.00 0.09 0.09 85 1009.1
20260506102604 62 315 5.0 12.0 0.00 0.09 0.09 85 1009.1
20260506102504 62 315 6.0 12.0 0.00 0.09 0.09 85 1009.1
20260506102404 62 315 6.0 12.0 0.00 0.09 0.09 85 1009.1
20260506102305 62 315 6.0 13.0 0.00 0.09 0.09 85 1009.1
20260506102204 62 315 6.0 13.0 0.00 0.09 0.09 85 1009.1
20260506102104 62 314 7.0 15.0 0.00 0.09 0.09 85 1009.1
20260506102004 62 314 7.0 15.0 0.00 0.09 0.09 85 1009.1
20260506101904 62 314 7.0 15.0 0.00 0.09 0.09 85 1009.0
20260506101804 62 314 7.0 15.0 0.00 0.09 0.09 85 1009.0
20260506101704 62 313 7.0 15.0 0.00 0.09 0.09 85 1009.0
20260506101604 62 313 8.0 16.0 0.00 0.09 0.09 85 1009.0
20260506101504 62 313 8.0 16.0 0.00 0.09 0.09 85 1009.0
20260506101404 62 313 8.0 16.0 0.00 0.09 0.09 85 1009.1
20260506101304 62 314 8.0 17.0 0.00 0.09 0.09 85 1009.1
20260506101204 62 314 8.0 17.0 0.00 0.09 0.09 85 1009.1
20260506101104 62 313 8.0 17.0 0.00 0.09 0.09 84 1009.1
20260506101004 62 313 8.0 20.0 0.00 0.09 0.09 85 1009.1
20260506100903 62 313 8.0 20.0 0.00 0.09 0.09 84 1009.1
20260506100803 62 312 8.0 20.0 0.00 0.09 0.09 84 1009.0
20260506100703 62 312 8.0 20.0 0.00 0.09 0.09 84 1009.0
20260506100603 62 313 8.0 20.0 0.00 0.09 0.09 85 1009.0
20260506100503 62 313 8.0 20.0 0.00 0.09 0.09 85 1009.0
20260506100403 62 313 8.0 20.0 0.00 0.09 0.09 85 1009.0
20260506100303 62 312 8.0 20.0 0.00 0.09 0.09 85 1009.0
20260506100203 62 312 8.0 20.0 0.00 0.09 0.09 84 1009.0
20260506100103 62 312 8.0 20.0 0.00 0.09 0.09 84 1009.1
20260506100004 62 312 8.0 20.0 0.00 0.09 0.09 84 1009.0
20260506095903 62 313 7.0 15.0 0.00 0.09 0.09 84 1009.0
20260506095803 62 313 7.0 15.0 0.00 0.09 0.09 85 1009.0
20260506095703 62 314 7.0 15.0 0.00 0.09 0.09 86 1009.0
20260506095603 62 314 7.0 15.0 0.00 0.09 0.09 86 1009.0
20260506095503 62 314 7.0 15.0 0.00 0.09 0.09 85 1008.9
20260506095403 62 314 6.0 15.0 0.00 0.09 0.09 86 1008.9
20260506095305 62 315 6.0 15.0 0.00 0.09 0.09 86 1008.9
20260506095203 62 315 6.0 15.0 0.00 0.09 0.09 86 1008.9
20260506095103 62 316 6.0 15.0 0.00 0.09 0.09 86 1009.0
20260506095003 62 316 6.0 15.0 0.00 0.09 0.09 85 1008.9
20260506094903 62 316 6.0 15.0 0.00 0.09 0.09 86 1008.9
20260506094803 62 315 6.0 15.0 0.00 0.09 0.09 86 1009.0
20260506094703 62 315 6.0 15.0 0.00 0.09 0.09 87 1009.0
20260506094603 61 314 6.0 15.0 0.00 0.09 0.09 86 1009.0
20260506094503 61 315 7.0 15.0 0.00 0.09 0.09 86 1009.0
20260506094403 61 315 7.0 16.0 0.00 0.09 0.09 86 1009.0
20260506094303 61 315 7.0 16.0 0.00 0.09 0.09 86 1009.0
20260506094203 61 314 7.0 16.0 0.00 0.09 0.09 86 1008.9
20260506094103 61 314 7.0 16.0 0.00 0.09 0.09 86 1008.9
20260506094003 61 314 7.0 16.0 0.00 0.10 0.09 86 1009.0
20260506093903 61 314 6.0 16.0 0.00 0.10 0.09 86 1009.0
20260506093803 61 315 6.0 16.0 0.00 0.10 0.09 86 1009.0
20260506093703 61 315 6.0 16.0 0.00 0.10 0.09 87 1008.9
20260506093603 61 315 6.0 16.0 0.00 0.10 0.09 86 1008.9
20260506093503 61 314 6.0 16.0 0.00 0.10 0.09 86 1008.9
20260506093403 61 313 6.0 14.0 0.00 0.10 0.09 87 1008.9
20260506093303 61 314 6.0 14.0 0.00 0.10 0.09 87 1008.9
20260506093203 61 314 6.0 14.0 0.00 0.10 0.09 87 1008.8
20260506093103 61 313 6.0 14.0 0.00 0.10 0.09 87 1008.8
20260506093003 61 313 6.0 14.0 0.00 0.11 0.09 87 1008.9
20260506092903 61 313 6.0 14.0 0.00 0.11 0.09 87 1008.9
20260506092804 61 312 6.0 14.0 0.00 0.11 0.09 88 1008.9
20260506092704 61 312 6.0 14.0 0.00 0.11 0.09 88 1008.9
20260506092604 61 311 7.0 18.0 0.00 0.11 0.09 88 1008.9
20260506092504 60 312 7.0 18.0 0.00 0.11 0.09 89 1008.9
20260506092404 60 312 7.0 18.0 0.00 0.11 0.09 89 1008.9
20260506092306 60 311 7.0 18.0 0.00 0.11 0.09 88 1008.9
20260506092204 60 311 7.0 18.0 0.00 0.11 0.09 88 1008.9
20260506092104 60 311 7.0 18.0 0.00 0.11 0.09 88 1008.9
20260506092004 60 312 7.0 18.0 0.00 0.11 0.09 88 1008.9
20260506091904 60 312 7.0 18.0 0.00 0.11 0.09 88 1008.9
20260506091804 60 313 7.0 18.0 0.00 0.11 0.09 88 1008.9
20260506091704 60 314 7.0 18.0 0.00 0.11 0.09 88 1008.8
20260506091604 60 315 7.0 15.0 0.00 0.11 0.09 88 1008.9
20260506091504 60 315 7.0 15.0 0.00 0.11 0.09 88 1008.9
20260506091404 60 316 6.0 15.0 0.00 0.11 0.09 88 1008.9
20260506091304 60 317 6.0 15.0 0.00 0.11 0.09 88 1008.9
20260506091204 60 318 6.0 14.0 0.00 0.11 0.09 88 1008.9
20260506091104 60 318 5.0 14.0 0.00 0.11 0.09 88 1009.0
20260506091004 60 318 5.0 14.0 0.00 0.11 0.09 89 1009.0
20260506090903 60 319 5.0 14.0 0.00 0.11 0.09 88 1009.0
20260506090803 60 318 6.0 14.0 0.00 0.11 0.09 89 1009.0
20260506090703 60 317 5.0 13.0 0.00 0.11 0.09 89 1009.0
20260506090603 60 316 6.0 13.0 0.00 0.11 0.09 89 1009.0
20260506090503 60 316 6.0 13.0 0.00 0.11 0.09 89 1009.0
20260506090403 60 316 5.0 13.0 0.00 0.11 0.09 89 1009.0
20260506090303 60 315 5.0 13.0 0.00 0.11 0.09 89 1009.0
20260506090203 60 315 5.0 13.0 0.00 0.11 0.09 89 1008.9
20260506090103 60 315 5.0 13.0 0.00 0.11 0.09 90 1009.0
20260506090004 60 316 5.0 13.0 0.00 0.11 0.09 89 1009.0
20260506085903 60 315 5.0 13.0 0.00 0.11 0.09 89 1009.0
20260506085803 60 315 4.0 13.0 0.00 0.11 0.09 89 1009.0
20260506085703 60 316 4.0 13.0 0.00 0.11 0.09 90 1009.0
20260506085603 59 315 3.0 8.0 0.00 0.11 0.09 91 1009.0
20260506085503 59 316 4.0 10.0 0.00 0.11 0.09 91 1009.0
20260506085403 59 316 4.0 10.0 0.00 0.11 0.09 91 1009.0
20260506085305 59 315 4.0 10.0 0.00 0.11 0.09 91 1008.9
20260506085203 59 315 4.0 10.0 0.00 0.11 0.09 91 1008.9
20260506085103 59 314 4.0 10.0 0.00 0.11 0.09 91 1008.9
20260506085003 59 313 4.0 10.0 0.00 0.11 0.09 91 1008.9
20260506084903 58 314 5.0 12.0 0.00 0.11 0.09 91 1008.9
20260506084803 58 313 5.0 12.0 0.00 0.11 0.09 91 1009.0
20260506084703 58 313 5.0 12.0 0.00 0.11 0.09 91 1009.0
20260506084603 58 313 5.0 12.0 0.00 0.11 0.09 91 1008.9
20260506084503 58 312 5.0 12.0 0.00 0.11 0.09 91 1009.0
20260506084403 58 311 5.0 12.0 0.01 0.11 0.09 91 1009.0
20260506084303 58 311 4.0 12.0 0.01 0.11 0.09 91 1008.8
20260506084203 58 310 4.0 12.0 0.01 0.11 0.09 91 1008.8
20260506084103 58 310 4.0 12.0 0.01 0.11 0.09 92 1008.9
20260506084003 58 309 4.0 12.0 0.01 0.12 0.09 92 1008.8
20260506083903 58 309 4.0 12.0 0.01 0.12 0.09 92 1008.8
20260506083803 58 309 5.0 12.0 0.01 0.12 0.09 92 1008.8
20260506083703 58 309 5.0 12.0 0.01 0.12 0.09 92 1008.8
20260506083603 58 309 5.0 12.0 0.01 0.12 0.09 92 1008.8
20260506083503 58 309 5.0 12.0 0.01 0.12 0.09 92 1008.8
20260506083403 58 309 6.0 13.0 0.01 0.12 0.09 92 1008.8
20260506083304 58 310 6.0 13.0 0.01 0.12 0.09 92 1008.8
20260506083204 58 310 6.0 13.0 0.01 0.12 0.09 92 1008.8
20260506083104 58 310 6.0 13.0 0.01 0.12 0.09 92 1008.8
20260506083004 58 311 6.0 13.0 0.01 0.12 0.09 92 1008.8
20260506082904 58 311 6.0 13.0 0.01 0.12 0.09 93 1008.8
20260506082804 58 311 6.0 13.0 0.01 0.12 0.09 92 1008.8
20260506082704 58 312 6.0 13.0 0.01 0.12 0.09 92 1008.9
20260506082604 58 312 6.0 13.0 0.01 0.12 0.09 92 1008.9
20260506082504 58 313 7.0 13.0 0.01 0.12 0.09 93 1008.9
20260506082404 58 312 6.0 13.0 0.01 0.12 0.09 93 1008.9
20260506082305 58 312 6.0 13.0 0.01 0.12 0.09 93 1008.9
20260506082204 58 312 6.0 13.0 0.01 0.12 0.09 93 1009.0
20260506082104 58 312 6.0 13.0 0.01 0.12 0.09 93 1009.0
20260506082004 58 312 6.0 13.0 0.01 0.12 0.09 93 1008.9
20260506081904 58 312 6.0 13.0 0.01 0.12 0.09 93 1008.9
20260506081804 58 311 7.0 13.0 0.01 0.12 0.09 93 1008.9
20260506081704 57 311 7.0 13.0 0.01 0.12 0.09 93 1009.0
20260506081603 57 310 7.0 13.0 0.01 0.12 0.09 94 1009.0
20260506081504 57 310 7.0 12.0 0.01 0.12 0.09 93 1008.9
20260506081404 57 310 6.0 12.0 0.01 0.12 0.09 93 1008.9
20260506081303 57 310 6.0 12.0 0.01 0.12 0.09 94 1009.0
20260506081203 57 310 7.0 14.0 0.01 0.12 0.09 94 1009.0
20260506081103 57 309 6.0 14.0 0.01 0.12 0.09 94 1009.0
20260506081004 57 309 6.0 14.0 0.01 0.12 0.09 93 1009.0
20260506080903 57 309 6.0 14.0 0.01 0.12 0.09 93 1009.0
20260506080804 57 309 6.0 14.0 0.01 0.12 0.09 93 1009.0
20260506080703 57 309 6.0 14.0 0.01 0.12 0.09 93 1008.9
20260506080603 57 309 6.0 14.0 0.01 0.12 0.09 93 1008.9
20260506080503 57 309 6.0 14.0 0.01 0.12 0.09 93 1008.8
20260506080403 57 309 6.0 15.0 0.01 0.12 0.09 93 1008.8
20260506080303 57 309 6.0 15.0 0.01 0.12 0.09 93 1008.8
20260506080203 57 309 6.0 15.0 0.01 0.12 0.09 93 1008.8
20260506080103 57 309 5.0 15.0 0.01 0.12 0.09 93 1008.8
20260506073503 57 309 4.0 11.0 0.01 0.11 0.09 93 1009.2
20260506073403 57 309 4.0 11.0 0.01 0.11 0.09 93 1009.2
20260506073303 57 310 4.0 11.0 0.01 0.11 0.09 93 1009.2
20260506073203 57 310 4.0 11.0 0.01 0.11 0.09 93 1009.2
20260506073103 57 310 5.0 12.0 0.01 0.11 0.09 93 1009.2
20260506073004 57 310 5.0 12.0 0.01 0.11 0.09 93 1009.2
20260506072904 57 310 5.0 12.0 0.01 0.11 0.09 93 1009.3
20260506072804 57 310 5.0 12.0 0.01 0.11 0.09 93 1009.3
20260506072704 57 310 6.0 12.0 0.01 0.11 0.09 93 1009.3
20260506072604 57 310 6.0 12.0 0.01 0.11 0.09 93 1009.2
20260506072504 57 310 6.0 12.0 0.01 0.11 0.09 93 1009.2
20260506072404 57 311 6.0 12.0 0.01 0.11 0.09 93 1009.2
20260506072305 57 311 5.0 12.0 0.01 0.11 0.09 93 1009.3
20260506072204 57 310 6.0 12.0 0.01 0.11 0.09 93 1009.3
20260506072104 57 311 5.0 11.0 0.01 0.11 0.09 93 1009.2
20260506072004 57 311 5.0 11.0 0.01 0.11 0.09 93 1009.3
20260506071904 57 311 5.0 11.0 0.01 0.11 0.09 93 1009.3
20260506071804 57 311 5.0 11.0 0.01 0.11 0.09 93 1009.3
20260506071704 57 311 5.0 11.0 0.01 0.11 0.09 93 1009.3
20260506071604 57 312 5.0 10.0 0.01 0.11 0.09 93 1009.3
20260506071504 57 311 5.0 10.0 0.01 0.11 0.09 93 1009.3
20260506071404 57 311 5.0 10.0 0.01 0.11 0.09 93 1009.3
20260506071304 57 311 5.0 10.0 0.01 0.11 0.09 93 1009.4
20260506071204 57 311 5.0 10.0 0.01 0.11 0.09 93 1009.4
20260506071104 57 311 5.0 10.0 0.01 0.11 0.09 93 1009.3
20260506071004 57 311 5.0 10.0 0.01 0.12 0.09 93 1009.3
20260506070904 57 311 5.0 10.0 0.01 0.12 0.09 93 1009.3
20260506070804 57 310 5.0 10.0 0.01 0.12 0.09 93 1009.3
20260506070703 57 310 5.0 10.0 0.01 0.12 0.09 93 1009.3
20260506070603 57 309 5.0 10.0 0.02 0.12 0.09 93 1009.3
20260506070504 57 309 5.0 10.0 0.02 0.12 0.09 93 1009.3
20260506070403 57 309 5.0 10.0 0.02 0.12 0.09 93 1009.3
20260506070303 57 309 4.0 9.0 0.02 0.12 0.09 93 1009.4
20260506070203 57 309 4.0 9.0 0.02 0.12 0.09 93 1009.4
20260506070103 57 309 4.0 9.0 0.02 0.12 0.09 93 1009.4
20260506062504 57 311 5.0 10.0 0.01 0.14 0.08 94 1009.4
20260506062404 57 311 5.0 10.0 0.01 0.14 0.08 94 1009.4
20260506062305 57 311 5.0 10.0 0.01 0.14 0.08 94 1009.4
20260506062204 57 311 5.0 10.0 0.01 0.14 0.08 94 1009.4
20260506062104 57 312 5.0 10.0 0.01 0.14 0.08 94 1009.5
20260506062004 57 311 5.0 10.0 0.01 0.15 0.08 94 1009.5
20260506061904 57 312 5.0 13.0 0.01 0.15 0.08 94 1009.5
20260506061804 57 311 5.0 13.0 0.01 0.15 0.08 94 1009.5
20260506061704 57 312 5.0 13.0 0.01 0.15 0.08 94 1009.4
20260506061604 57 312 4.0 13.0 0.01 0.15 0.08 94 1009.4
20260506061504 57 311 4.0 13.0 0.01 0.16 0.08 94 1009.4
20260506061404 57 311 4.0 13.0 0.01 0.16 0.08 94 1009.4
20260506061304 57 310 4.0 13.0 0.01 0.16 0.08 94 1009.3
20260506061204 57 310 4.0 13.0 0.01 0.16 0.08 94 1009.3
20260506061104 57 309 4.0 13.0 0.01 0.16 0.08 94 1009.4
20260506061004 57 309 4.0 13.0 0.01 0.19 0.08 94 1009.4
20260506060903 57 309 3.0 12.0 0.01 0.19 0.08 94 1009.4
20260506060803 57 308 3.0 9.0 0.01 0.19 0.08 95 1009.4
20260506060703 57 308 3.0 9.0 0.00 0.18 0.08 95 1009.4
20260506060603 57 308 3.0 9.0 0.00 0.18 0.07 95 1009.3
20260506060504 57 308 3.0 9.0 0.00 0.21 0.07 95 1009.3
20260506060403 57 309 3.0 9.0 0.00 0.21 0.07 95 1009.3
20260506060303 57 309 4.0 9.0 0.00 0.21 0.07 95 1009.4
20260506060204 57 308 5.0 9.0 0.00 0.21 0.07 95 1009.4